| time (UTC) | temp C | wind direction | speed KPH | gust KPH | rain 1hr cm | rain 24hr cm | rain mn cm | humidity % | barometer mb |
| 20260510143845 | 13 | 162 | 12.9 | 22.5 | 0.00 | 0.13 | 0.13 | 1 | 1010.5 |
| 20260510143749 | 13 | 150 | 14.5 | 22.5 | 0.00 | 0.13 | 0.13 | 1 | 1010.6 |
| 20260510143711 | 13 | 171 | 16.1 | 22.5 | 0.00 | 0.13 | 0.13 | 1 | 1010.6 |
| 20260510143543 | 13 | 200 | 14.5 | 20.9 | 0.00 | 0.13 | 0.13 | 1 | 1010.5 |
| 20260510143436 | 13 | 192 | 14.5 | 20.9 | 0.00 | 0.13 | 0.13 | 1 | 1010.4 |
| 20260510143308 | 13 | 152 | 8.0 | 19.3 | 0.00 | 0.13 | 0.13 | 1 | 1010.5 |
| 20260510143209 | 12 | 185 | 8.0 | 19.3 | 0.00 | 0.13 | 0.13 | 1 | 1010.5 |
| 20260510143131 | 12 | 179 | 11.3 | 19.3 | 0.00 | 0.13 | 0.13 | 1 | 1010.5 |
| 20260510143015 | 12 | 188 | 11.3 | 19.3 | 0.00 | 0.13 | 0.13 | 1 | 1010.4 |
| 20260510142916 | 12 | 158 | 11.3 | 19.3 | 0.00 | 0.13 | 0.13 | 1 | 1010.5 |
| 20260510142736 | 12 | 209 | 9.7 | 19.3 | 0.00 | 0.13 | 0.13 | 1 | 1010.4 |
| 20260510142632 | 12 | 177 | 11.3 | 19.3 | 0.00 | 0.13 | 0.13 | 1 | 1010.4 |
| 20260510142501 | 12 | 170 | 9.7 | 19.3 | 0.00 | 0.13 | 0.13 | 1 | 1010.4 |
| 20260510142404 | 12 | 186 | 11.3 | 22.5 | 0.00 | 0.13 | 0.13 | 1 | 1010.4 |
| 20260510142316 | 12 | 148 | 14.5 | 29.0 | 0.00 | 0.13 | 0.13 | 1 | 1010.4 |
| 20260510142128 | 12 | 143 | 12.9 | 29.0 | 0.00 | 0.13 | 0.13 | 1 | 1010.2 |
| 20260510142023 | 12 | 190 | 12.9 | 29.0 | 0.00 | 0.13 | 0.13 | 1 | 1010.4 |
| 20260510141946 | 12 | 144 | 12.9 | 29.0 | 0.00 | 0.13 | 0.13 | 1 | 1010.4 |
| 20260510141842 | 12 | 159 | 14.5 | 29.0 | 0.00 | 0.13 | 0.13 | 1 | 1010.4 |
| 20260510141743 | 12 | 139 | 17.7 | 29.0 | 0.00 | 0.13 | 0.13 | 1 | 1010.5 |
| 20260510141651 | 12 | 178 | 14.5 | 29.0 | 0.00 | 0.13 | 0.13 | 1 | 1010.5 |
| 20260510141553 | 12 | 165 | 14.5 | 29.0 | 0.00 | 0.13 | 0.13 | 1 | 1010.5 |
| 20260510141516 | 12 | 181 | 12.9 | 29.0 | 0.00 | 0.13 | 0.13 | 1 | 1010.5 |
| 20260510141329 | 12 | 167 | 11.3 | 19.3 | 0.00 | 0.13 | 0.13 | 1 | 1010.6 |
| 20260510141252 | 12 | 174 | 9.7 | 19.3 | 0.00 | 0.13 | 0.13 | 1 | 1010.6 |
| 20260510141156 | 12 | 138 | 9.7 | 27.4 | 0.00 | 0.13 | 0.13 | 1 | 1010.5 |
| 20260510141119 | 12 | 192 | 11.3 | 27.4 | 0.00 | 0.13 | 0.13 | 1 | 1010.5 |
| 20260510140923 | 12 | 161 | 11.3 | 27.4 | 0.00 | 0.13 | 0.13 | 1 | 1010.5 |
| 20260510140826 | 12 | 213 | 12.9 | 27.4 | 0.00 | 0.13 | 0.13 | 1 | 1010.5 |
| 20260510140725 | 13 | 153 | 14.5 | 27.4 | 0.00 | 0.13 | 0.13 | 1 | 1010.4 |
| 20260510140646 | 13 | 144 | 11.3 | 27.4 | 0.00 | 0.13 | 0.13 | 1 | 1010.4 |
| 20260510140428 | 13 | 163 | 14.5 | 27.4 | 0.00 | 0.13 | 0.13 | 1 | 1010.5 |
| 20260510140331 | 13 | 173 | 14.5 | 27.4 | 0.00 | 0.13 | 0.13 | 1 | 1010.4 |
| 20260510140233 | 13 | 157 | 14.5 | 32.2 | 0.00 | 0.13 | 0.13 | 1 | 1010.5 |
| 20260510140156 | 13 | 173 | 16.1 | 32.2 | 0.00 | 0.13 | 0.13 | 1 | 1010.5 |
| 20260510140119 | 13 | 155 | 14.5 | 32.2 | 0.00 | 0.13 | 0.13 | 1 | 1010.5 |
| 20260510140002 | 13 | 171 | 12.9 | 32.2 | 0.00 | 0.13 | 0.13 | 1 | 1010.4 |
| 20260510135924 | 13 | 157 | 12.9 | 32.2 | 0.00 | 0.13 | 0.13 | 1 | 1010.4 |
| 20260510135729 | 13 | 188 | 6.4 | 32.2 | 0.00 | 0.13 | 0.13 | 1 | 1010.4 |
| 20260510135636 | 13 | 217 | 11.3 | 32.2 | 0.00 | 0.13 | 0.13 | 1 | 1010.3 |
| 20260510135538 | 13 | 188 | 17.7 | 32.2 | 0.00 | 0.13 | 0.13 | 1 | 1010.3 |
| 20260510135444 | 13 | 154 | 17.7 | 32.2 | 0.00 | 0.13 | 0.13 | 1 | 1010.3 |
| 20260510135358 | 13 | 168 | 17.7 | 29.0 | 0.00 | 0.13 | 0.13 | 1 | 1010.3 |
| 20260510135207 | 12 | 167 | 16.1 | 29.0 | 0.00 | 0.13 | 0.13 | 1 | 1010.3 |
| 20260510135130 | 13 | 131 | 16.1 | 29.0 | 0.00 | 0.13 | 0.13 | 1 | 1010.2 |
| 20260510134932 | 13 | 200 | 11.3 | 22.5 | 0.00 | 0.13 | 0.13 | 1 | 1010.2 |
| 20260510134835 | 12 | 153 | 9.7 | 22.5 | 0.00 | 0.13 | 0.13 | 1 | 1010.2 |
| 20260510134738 | 12 | 125 | 12.9 | 24.1 | 0.00 | 0.13 | 0.13 | 1 | 1010.2 |
| 20260510134705 | 12 | 153 | 14.5 | 22.5 | 0.00 | 0.13 | 0.13 | 1 | 1010.2 |
| 20260510134626 | 12 | 172 | 16.1 | 22.5 | 0.00 | 0.13 | 0.13 | 1 | 1010.3 |
| 20260510134430 | 13 | 200 | 12.9 | 27.4 | 0.00 | 0.13 | 0.13 | 1 | 1010.3 |
| 20260510134354 | 13 | 163 | 11.3 | 29.0 | 0.00 | 0.13 | 0.13 | 1 | 1010.3 |
| 20260510134238 | 13 | 222 | 14.5 | 29.0 | 0.00 | 0.13 | 0.13 | 1 | 1010.2 |
| 20260510134201 | 13 | 156 | 14.5 | 29.0 | 0.00 | 0.13 | 0.13 | 1 | 1010.2 |
| 20260510134115 | 13 | 150 | 14.5 | 29.0 | 0.00 | 0.13 | 0.13 | 1 | 1010.3 |
| 20260510133936 | 13 | 168 | 9.7 | 29.0 | 0.00 | 0.13 | 0.13 | 1 | 1010.2 |
| 20260510133853 | 13 | 184 | 12.9 | 29.0 | 0.00 | 0.13 | 0.13 | 1 | 1010.2 |
| 20260510133815 | 13 | 196 | 14.5 | 29.0 | 0.00 | 0.13 | 0.13 | 1 | 1010.2 |
| 20260510133631 | 13 | 177 | 17.7 | 29.0 | 0.00 | 0.13 | 0.13 | 1 | 1010.2 |
| 20260510133526 | 13 | 154 | 17.7 | 27.4 | 0.00 | 0.13 | 0.13 | 1 | 1010.1 |
| 20260510133450 | 13 | 161 | 16.1 | 27.4 | 0.00 | 0.13 | 0.13 | 1 | 1010.1 |
| 20260510133354 | 13 | 163 | 11.3 | 27.4 | 0.00 | 0.13 | 0.13 | 1 | 1010.1 |
| 20260510133235 | 12 | 155 | 9.7 | 25.7 | 0.00 | 0.13 | 0.13 | 1 | 1010.0 |
| 20260510133138 | 12 | 194 | 11.3 | 25.7 | 0.00 | 0.13 | 0.13 | 1 | 1010.1 |
| 20260510133101 | 12 | 93 | 9.7 | 25.7 | 0.00 | 0.13 | 0.13 | 1 | 1010.1 |
| 20260510133024 | 12 | 234 | 8.0 | 29.0 | 0.00 | 0.13 | 0.13 | 1 | 1010.1 |
| 20260510132826 | 12 | 148 | 11.3 | 29.0 | 0.00 | 0.13 | 0.13 | 1 | 1010.1 |
| 20260510132753 | 12 | 142 | 11.3 | 29.0 | 0.00 | 0.13 | 0.13 | 1 | 1010.1 |
| 20260510132637 | 12 | 220 | 17.7 | 29.0 | 0.00 | 0.13 | 0.13 | 1 | 1009.9 |
| 20260510132557 | 12 | 150 | 20.9 | 29.0 | 0.00 | 0.13 | 0.13 | 1 | 1009.9 |
| 20260510132500 | 12 | 152 | 17.7 | 29.0 | 0.00 | 0.13 | 0.13 | 1 | 1009.9 |
| 20260510132345 | 12 | 162 | 16.1 | 29.0 | 0.00 | 0.13 | 0.13 | 1 | 1009.9 |
| 20260510132256 | 12 | 192 | 17.7 | 29.0 | 0.00 | 0.13 | 0.13 | 1 | 1009.9 |
| 20260510132138 | 12 | 148 | 16.1 | 24.1 | 0.00 | 0.13 | 0.13 | 1 | 1009.8 |
| 20260510132040 | 12 | 189 | 16.1 | 24.1 | 0.00 | 0.13 | 0.13 | 1 | 1009.8 |
| 20260510131923 | 12 | 186 | 11.3 | 24.1 | 0.00 | 0.13 | 0.13 | 1 | 1009.8 |
| 20260510131845 | 12 | 192 | 11.3 | 24.1 | 0.00 | 0.13 | 0.13 | 1 | 1009.8 |
| 20260510131658 | 12 | 148 | 12.9 | 24.1 | 0.00 | 0.13 | 0.13 | 1 | 1009.8 |
| 20260510131601 | 12 | 213 | 14.5 | 24.1 | 0.00 | 0.13 | 0.13 | 1 | 1009.8 |
| 20260510131423 | 12 | 140 | 12.9 | 24.1 | 0.00 | 0.13 | 0.13 | 1 | 1009.8 |
| 20260510131327 | 12 | 186 | 11.3 | 20.9 | 0.00 | 0.13 | 0.13 | 1 | 1009.8 |
| 20260510131249 | 12 | 163 | 12.9 | 19.3 | 0.00 | 0.13 | 0.13 | 1 | 1009.8 |
| 20260510131123 | 12 | 172 | 9.7 | 19.3 | 0.00 | 0.13 | 0.13 | 1 | 1009.9 |
| 20260510131047 | 12 | 179 | 9.7 | 19.3 | 0.00 | 0.13 | 0.13 | 1 | 1009.9 |
| 20260510131001 | 12 | 138 | 9.7 | 19.3 | 0.00 | 0.13 | 0.13 | 1 | 1009.9 |
| 20260510130848 | 12 | 159 | 9.7 | 19.3 | 0.00 | 0.13 | 0.13 | 1 | 1009.9 |
| 20260510130723 | 12 | 170 | 12.9 | 19.3 | 0.00 | 0.13 | 0.13 | 1 | 1009.9 |
| 20260510130638 | 12 | 150 | 12.9 | 19.3 | 0.00 | 0.13 | 0.13 | 1 | 1010.0 |
| 20260510130541 | 12 | 142 | 11.3 | 25.7 | 0.00 | 0.13 | 0.13 | 1 | 1010.1 |
| 20260510130424 | 12 | 164 | 8.0 | 25.7 | 0.00 | 0.13 | 0.13 | 1 | 1010.1 |
| 20260510130347 | 12 | 184 | 8.0 | 25.7 | 0.00 | 0.13 | 0.13 | 1 | 1010.1 |
| 20260510130241 | 12 | 169 | 11.3 | 25.7 | 0.00 | 0.13 | 0.13 | 1 | 1010.1 |
| 20260510130128 | 12 | 182 | 14.5 | 25.7 | 0.00 | 0.13 | 0.13 | 1 | 1010.1 |
| 20260510130049 | 12 | 169 | 14.5 | 25.7 | 0.00 | 0.13 | 0.13 | 1 | 1010.0 |
| 20260510125833 | 12 | 159 | 12.9 | 25.7 | 0.00 | 0.13 | 0.13 | 1 | 1010.0 |
| 20260510125735 | 12 | 164 | 14.5 | 25.7 | 0.00 | 0.13 | 0.13 | 1 | 1010.0 |
| 20260510125640 | 12 | 186 | 12.9 | 24.1 | 0.00 | 0.13 | 0.13 | 1 | 1010.0 |
| 20260510125540 | 12 | 133 | 12.9 | 24.1 | 0.00 | 0.13 | 0.13 | 1 | 1010.0 |
| 20260510125424 | 12 | 169 | 11.3 | 27.4 | 0.00 | 0.13 | 0.13 | 1 | 1009.9 |
| 20260510125325 | 12 | 126 | 9.7 | 19.3 | 0.00 | 0.13 | 0.13 | 1 | 1009.9 |
| 20260510125248 | 12 | 179 | 11.3 | 20.9 | 0.00 | 0.13 | 0.13 | 1 | 1009.9 |
| 20260510125156 | 12 | 201 | 9.7 | 19.3 | 0.00 | 0.13 | 0.13 | 1 | 1009.9 |
| 20260510125118 | 12 | 165 | 11.3 | 19.3 | 0.00 | 0.13 | 0.13 | 1 | 1010.0 |
| 20260510124924 | 12 | 173 | 12.9 | 22.5 | 0.00 | 0.13 | 0.13 | 1 | 1009.8 |
| 20260510124825 | 12 | 190 | 14.5 | 19.3 | 0.00 | 0.13 | 0.13 | 1 | 1009.8 |
| 20260510124729 | 12 | 209 | 12.9 | 24.1 | 0.00 | 0.13 | 0.13 | 1 | 1009.8 |
| 20260510124651 | 12 | 171 | 9.7 | 24.1 | 0.00 | 0.13 | 0.13 | 1 | 1009.8 |
| 20260510124434 | 12 | 139 | 12.9 | 24.1 | 0.00 | 0.13 | 0.13 | 1 | 1009.7 |
| 20260510124337 | 12 | 152 | 12.9 | 24.1 | 0.00 | 0.13 | 0.13 | 1 | 1009.6 |
| 20260510124240 | 12 | 185 | 14.5 | 24.1 | 0.00 | 0.13 | 0.13 | 1 | 1009.7 |
| 20260510124206 | 12 | 122 | 16.1 | 24.1 | 0.00 | 0.13 | 0.13 | 1 | 1009.7 |
| 20260510124129 | 12 | 143 | 16.1 | 25.7 | 0.00 | 0.13 | 0.13 | 1 | 1009.8 |
| 20260510123934 | 12 | 143 | 11.3 | 20.9 | 0.00 | 0.13 | 0.13 | 1 | 1009.7 |
| 20260510123838 | 12 | 187 | 11.3 | 20.9 | 0.00 | 0.13 | 0.13 | 1 | 1009.7 |
| 20260510123742 | 12 | 182 | 11.3 | 20.9 | 0.00 | 0.13 | 0.13 | 1 | 1009.7 |
| 20260510123643 | 12 | 134 | 9.7 | 20.9 | 0.00 | 0.13 | 0.13 | 1 | 1009.7 |
| 20260510123427 | 12 | 135 | 8.0 | 24.1 | 0.00 | 0.13 | 0.13 | 1 | 1009.6 |
| 20260510123331 | 12 | 170 | 9.7 | 24.1 | 0.00 | 0.13 | 0.13 | 1 | 1009.6 |
| 20260510123218 | 12 | 168 | 12.9 | 24.1 | 0.00 | 0.13 | 0.13 | 1 | 1009.6 |
| 20260510123151 | 12 | 131 | 14.5 | 24.1 | 0.00 | 0.13 | 0.13 | 1 | 1009.6 |
| 20260510122932 | 12 | 144 | 11.3 | 24.1 | 0.00 | 0.13 | 0.13 | 1 | 1009.6 |
| 20260510122856 | 12 | 187 | 11.3 | 24.1 | 0.00 | 0.13 | 0.13 | 1 | 1009.6 |
| 20260510122739 | 12 | 162 | 12.9 | 24.1 | 0.00 | 0.13 | 0.13 | 1 | 1009.6 |
| 20260510122615 | 12 | 177 | 11.3 | 22.5 | 0.00 | 0.13 | 0.13 | 1 | 1009.7 |
| 20260510122546 | 12 | 170 | 11.3 | 22.5 | 0.00 | 0.13 | 0.13 | 1 | 1009.7 |
| 20260510122450 | 12 | 161 | 11.3 | 22.5 | 0.00 | 0.13 | 0.13 | 1 | 1009.7 |
| 20260510122329 | 12 | 140 | 14.5 | 22.5 | 0.00 | 0.13 | 0.13 | 1 | 1009.7 |
| 20260510122232 | 12 | 172 | 14.5 | 22.5 | 0.00 | 0.13 | 0.13 | 1 | 1009.8 |
| 20260510122156 | 12 | 124 | 14.5 | 22.5 | 0.00 | 0.13 | 0.13 | 1 | 1009.8 |
| 20260510122117 | 12 | 159 | 11.3 | 22.5 | 0.00 | 0.13 | 0.13 | 1 | 1009.7 |
| 20260510122020 | 12 | 169 | 8.0 | 22.5 | 0.00 | 0.13 | 0.13 | 1 | 1009.8 |
| 20260510121922 | 12 | 178 | 9.7 | 22.5 | 0.00 | 0.13 | 0.13 | 1 | 1009.9 |
| 20260510121726 | 12 | 127 | 11.3 | 22.5 | 0.00 | 0.13 | 0.13 | 1 | 1009.9 |
| 20260510121629 | 12 | 163 | 8.0 | 22.5 | 0.00 | 0.13 | 0.13 | 1 | 1010.0 |
| 20260510121534 | 12 | 154 | 6.4 | 22.5 | 0.00 | 0.13 | 0.13 | 1 | 1010.1 |
| 20260510121440 | 12 | 174 | 8.0 | 22.5 | 0.00 | 0.13 | 0.13 | 1 | 1010.1 |
| 20260510121353 | 12 | 111 | 8.0 | 22.5 | 0.00 | 0.13 | 0.13 | 1 | 1010.1 |
| 20260510121306 | 12 | 164 | 11.3 | 22.5 | 0.00 | 0.13 | 0.13 | 1 | 1010.1 |
| 20260510121229 | 12 | 144 | 12.9 | 22.5 | 0.00 | 0.13 | 0.13 | 1 | 1010.1 |
| 20260510121100 | 12 | 171 | 9.7 | 19.3 | 0.00 | 0.13 | 0.13 | 1 | 1010.0 |
| 20260510120955 | 12 | 155 | 9.7 | 19.3 | 0.00 | 0.13 | 0.13 | 1 | 1010.0 |
| 20260510120744 | 12 | 142 | 12.9 | 24.1 | 0.00 | 0.13 | 0.13 | 1 | 1010.0 |
| 20260510120638 | 12 | 167 | 12.9 | 24.1 | 0.00 | 0.13 | 0.13 | 1 | 1010.0 |
| 20260510120509 | 12 | 186 | 11.3 | 24.1 | 0.00 | 0.13 | 0.13 | 1 | 1009.9 |
| 20260510120432 | 12 | 211 | 12.9 | 24.1 | 0.00 | 0.13 | 0.13 | 1 | 1010.0 |
| 20260510120235 | 12 | 152 | 9.7 | 24.1 | 0.00 | 0.13 | 0.13 | 1 | 1009.9 |
| 20260510120143 | 12 | 147 | 12.9 | 24.1 | 0.00 | 0.13 | 0.13 | 1 | 1009.9 |
| 20260510120027 | 12 | 145 | 12.9 | 24.1 | 0.00 | 0.13 | 0.13 | 1 | 1009.9 |
| 20260510120000 | 12 | 168 | 11.3 | 24.1 | 0.00 | 0.13 | 0.13 | 1 | 1009.9 |
| 20260510115822 | 12 | 180 | 9.7 | 24.1 | 0.00 | 0.13 | 0.13 | 1 | 1009.9 |
| 20260510115745 | 12 | 157 | 9.7 | 24.1 | 0.00 | 0.13 | 0.13 | 1 | 1009.9 |
| 20260510115637 | 12 | 184 | 11.3 | 24.1 | 0.00 | 0.13 | 0.13 | 1 | 1009.9 |
| 20260510115601 | 12 | 179 | 12.9 | 24.1 | 0.00 | 0.13 | 0.13 | 1 | 1009.9 |
| 20260510115506 | 12 | 189 | 12.9 | 24.1 | 0.00 | 0.13 | 0.13 | 1 | 1009.8 |
| 20260510115428 | 12 | 140 | 14.5 | 24.1 | 0.00 | 0.13 | 0.13 | 1 | 1009.8 |
| 20260510115235 | 12 | 167 | 14.5 | 24.1 | 0.00 | 0.13 | 0.13 | 1 | 1009.7 |
| 20260510115138 | 12 | 139 | 16.1 | 24.1 | 0.00 | 0.13 | 0.13 | 1 | 1009.7 |
| 20260510114945 | 12 | 175 | 14.5 | 24.1 | 0.00 | 0.13 | 0.13 | 1 | 1009.6 |
| 20260510114727 | 12 | 114 | 12.9 | 24.1 | 0.00 | 0.13 | 0.13 | 1 | 1009.6 |
| 20260510114650 | 12 | 151 | 12.9 | 24.1 | 0.00 | 0.13 | 0.13 | 1 | 1009.6 |
| 20260510114534 | 12 | 160 | 9.7 | 17.7 | 0.00 | 0.13 | 0.13 | 1 | 1009.7 |
| 20260510114442 | 12 | 160 | 9.7 | 19.3 | 0.00 | 0.13 | 0.13 | 1 | 1009.7 |
| 20260510114356 | 12 | 182 | 9.7 | 17.7 | 0.00 | 0.13 | 0.13 | 1 | 1009.7 |
| 20260510114227 | 12 | 167 | 11.3 | 20.9 | 0.00 | 0.13 | 0.13 | 1 | 1009.7 |
| 20260510114129 | 12 | 202 | 11.3 | 20.9 | 0.00 | 0.13 | 0.13 | 1 | 1009.7 |
| 20260510113932 | 12 | 169 | 9.7 | 20.9 | 0.00 | 0.13 | 0.13 | 1 | 1009.7 |
| 20260510113856 | 12 | 137 | 9.7 | 20.9 | 0.00 | 0.13 | 0.13 | 1 | 1009.7 |
| 20260510113800 | 11 | 124 | 9.7 | 20.9 | 0.00 | 0.13 | 0.13 | 1 | 1009.7 |
| 20260510113642 | 11 | 143 | 9.7 | 20.9 | 0.00 | 0.13 | 0.13 | 1 | 1009.7 |
| 20260510113547 | 11 | 149 | 12.9 | 20.9 | 0.00 | 0.13 | 0.13 | 1 | 1009.8 |
| 20260510113511 | 11 | 159 | 12.9 | 20.9 | 0.00 | 0.13 | 0.13 | 1 | 1009.7 |
| 20260510113442 | 11 | 177 | 12.9 | 20.9 | 0.00 | 0.13 | 0.13 | 1 | 1009.7 |
| 20260510113317 | 11 | 148 | 8.0 | 17.7 | 0.00 | 0.13 | 0.13 | 1 | 1009.7 |
| 20260510113221 | 11 | 144 | 8.0 | 17.7 | 0.00 | 0.13 | 0.13 | 1 | 1009.7 |
| 20260510113142 | 11 | 163 | 9.7 | 17.7 | 0.00 | 0.13 | 0.13 | 1 | 1009.7 |
| 20260510113014 | 11 | 151 | 11.3 | 19.3 | 0.00 | 0.13 | 0.13 | 1 | 1009.6 |
| 20260510112930 | 11 | 178 | 11.3 | 16.1 | 0.00 | 0.13 | 0.13 | 1 | 1009.6 |
| 20260510112801 | 11 | 145 | 11.3 | 17.7 | 0.00 | 0.13 | 0.13 | 1 | 1009.5 |
| 20260510112635 | 11 | 167 | 9.7 | 25.7 | 0.00 | 0.13 | 0.13 | 1 | 1009.4 |
| 20260510112559 | 11 | 129 | 8.0 | 25.7 | 0.00 | 0.13 | 0.13 | 1 | 1009.4 |
| 20260510112520 | 11 | 179 | 9.7 | 25.7 | 0.00 | 0.13 | 0.13 | 1 | 1009.4 |
| 20260510112434 | 11 | 162 | 9.7 | 25.7 | 0.00 | 0.13 | 0.13 | 1 | 1009.5 |
| 20260510112306 | 11 | 126 | 9.7 | 25.7 | 0.00 | 0.13 | 0.13 | 1 | 1009.4 |
| 20260510112207 | 11 | 142 | 12.9 | 25.7 | 0.00 | 0.13 | 0.13 | 1 | 1009.4 |
| 20260510112112 | 11 | 148 | 12.9 | 25.7 | 0.00 | 0.13 | 0.13 | 1 | 1009.5 |
| 20260510112016 | 11 | 103 | 11.3 | 25.7 | 0.00 | 0.13 | 0.13 | 1 | 1009.4 |
| 20260510111939 | 11 | 156 | 11.3 | 25.7 | 0.00 | 0.13 | 0.13 | 1 | 1009.4 |
| 20260510111808 | 11 | 178 | 12.9 | 22.5 | 0.00 | 0.13 | 0.13 | 1 | 1009.4 |
| 20260510111722 | 11 | 140 | 12.9 | 22.5 | 0.00 | 0.13 | 0.13 | 1 | 1009.4 |
| 20260510111553 | 11 | 150 | 6.4 | 14.5 | 0.00 | 0.13 | 0.13 | 1 | 1009.4 |
| 20260510111456 | 11 | 145 | 8.0 | 14.5 | 0.00 | 0.13 | 0.13 | 1 | 1009.4 |
| 20260510111339 | 11 | 119 | 8.0 | 17.7 | 0.00 | 0.13 | 0.13 | 1 | 1009.5 |
| 20260510111243 | 11 | 149 | 6.4 | 17.7 | 0.00 | 0.13 | 0.13 | 1 | 1009.5 |
| 20260510111136 | 11 | 168 | 9.7 | 17.7 | 0.00 | 0.13 | 0.13 | 1 | 1009.5 |
| 20260510111024 | 11 | 130 | 8.0 | 17.7 | 0.00 | 0.13 | 0.13 | 1 | 1009.6 |
| 20260510110947 | 11 | 161 | 8.0 | 17.7 | 0.00 | 0.13 | 0.13 | 1 | 1009.6 |
| 20260510110910 | 11 | 140 | 4.8 | 17.7 | 0.00 | 0.13 | 0.13 | 1 | 1009.6 |
| 20260510110752 | 11 | 157 | 8.0 | 17.7 | 0.00 | 0.13 | 0.13 | 1 | 1009.5 |
| 20260510110654 | 11 | 157 | 9.7 | 17.7 | 0.00 | 0.13 | 0.13 | 1 | 1009.5 |
| 20260510110617 | 11 | 154 | 9.7 | 17.7 | 0.00 | 0.13 | 0.13 | 1 | 1009.5 |
| 20260510110440 | 11 | 132 | 9.7 | 17.7 | 0.00 | 0.13 | 0.13 | 1 | 1009.5 |
| 20260510110342 | 11 | 178 | 11.3 | 19.3 | 0.00 | 0.13 | 0.13 | 1 | 1009.5 |
| 20260510110226 | 11 | 140 | 9.7 | 17.7 | 0.00 | 0.13 | 0.13 | 1 | 1009.5 |
| 20260510110146 | 11 | 195 | 8.0 | 16.1 | 0.00 | 0.13 | 0.13 | 1 | 1009.5 |
| 20260510110020 | 11 | 188 | 9.7 | 14.5 | 0.00 | 0.13 | 0.13 | 1 | 1009.4 |
| 20260510105913 | 11 | 165 | 9.7 | 19.3 | 0.00 | 0.13 | 0.13 | 1 | 1009.4 |
| 20260510105724 | 11 | 151 | 6.4 | 19.3 | 0.00 | 0.13 | 0.13 | 1 | 1009.3 |
| 20260510105640 | 11 | 190 | 8.0 | 19.3 | 0.00 | 0.13 | 0.13 | 1 | 1009.3 |
| 20260510105511 | 11 | 131 | 6.4 | 19.3 | 0.00 | 0.13 | 0.13 | 1 | 1009.2 |
| 20260510105434 | 11 | 178 | 6.4 | 19.3 | 0.00 | 0.13 | 0.13 | 1 | 1009.2 |
| 20260510105235 | 11 | 138 | 8.0 | 19.3 | 0.00 | 0.13 | 0.13 | 1 | 1009.1 |
| 20260510105159 | 11 | 148 | 9.7 | 19.3 | 0.00 | 0.13 | 0.13 | 1 | 1009.1 |
| 20260510105024 | 11 | 148 | 9.7 | 16.1 | 0.00 | 0.13 | 0.13 | 1 | 1009.2 |
| 20260510104942 | 11 | 141 | 9.7 | 16.1 | 0.00 | 0.13 | 0.13 | 1 | 1009.2 |
| 20260510104814 | 11 | 140 | 8.0 | 16.1 | 0.00 | 0.13 | 0.13 | 1 | 1009.2 |
| 20260510104705 | 11 | 114 | 9.7 | 16.1 | 0.00 | 0.13 | 0.13 | 1 | 1009.1 |
| 20260510104527 | 11 | 158 | 9.7 | 16.1 | 0.00 | 0.13 | 0.13 | 1 | 1009.2 |
| 20260510104448 | 11 | 141 | 11.3 | 17.7 | 0.00 | 0.13 | 0.13 | 1 | 1009.2 |
| 20260510104319 | 11 | 192 | 9.7 | 17.7 | 0.00 | 0.13 | 0.13 | 1 | 1009.1 |
| 20260510104235 | 11 | 115 | 8.0 | 16.1 | 0.00 | 0.13 | 0.13 | 1 | 1009.0 |
| 20260510104104 | 11 | 148 | 11.3 | 16.1 | 0.00 | 0.13 | 0.13 | 1 | 1008.9 |
| 20260510104025 | 11 | 171 | 11.3 | 16.1 | 0.00 | 0.13 | 0.13 | 1 | 1008.9 |
| 20260510103828 | 11 | 159 | 6.4 | 24.1 | 0.00 | 0.13 | 0.13 | 1 | 1009.0 |
| 20260510103752 | 11 | 150 | 6.4 | 24.1 | 0.00 | 0.13 | 0.13 | 1 | 1009.0 |
| 20260510103640 | 11 | 113 | 6.4 | 24.1 | 0.00 | 0.13 | 0.13 | 1 | 1009.0 |
| 20260510103534 | 11 | 153 | 6.4 | 24.1 | 0.00 | 0.13 | 0.13 | 1 | 1009.0 |
| 20260510103457 | 11 | 176 | 6.4 | 24.1 | 0.00 | 0.13 | 0.13 | 1 | 1009.0 |
| 20260510103421 | 10 | 160 | 6.4 | 24.1 | 0.00 | 0.13 | 0.13 | 1 | 1009.0 |
| 20260510103335 | 10 | 122 | 8.0 | 24.1 | 0.00 | 0.13 | 0.13 | 1 | 1009.1 |
| 20260510103206 | 10 | 126 | 11.3 | 24.1 | 0.00 | 0.13 | 0.13 | 1 | 1009.1 |
| 20260510103106 | 10 | 155 | 9.7 | 16.1 | 0.00 | 0.13 | 0.13 | 1 | 1009.1 |
| 20260510102917 | 10 | 119 | 4.8 | 16.1 | 0.00 | 0.13 | 0.13 | 1 | 1009.1 |
| 20260510102800 | 10 | 151 | 6.4 | 16.1 | 0.00 | 0.13 | 0.13 | 1 | 1009.1 |
| 20260510102721 | 10 | 134 | 6.4 | 16.1 | 0.00 | 0.13 | 0.13 | 1 | 1009.1 |
| 20260510102530 | 10 | 146 | 6.4 | 16.1 | 0.00 | 0.13 | 0.13 | 1 | 1009.2 |
| 20260510102432 | 10 | 130 | 8.0 | 16.1 | 0.00 | 0.13 | 0.13 | 1 | 1009.2 |
| 20260510102336 | 10 | 146 | 8.0 | 16.1 | 0.00 | 0.13 | 0.13 | 1 | 1009.2 |
| 20260510102258 | 10 | 150 | 6.4 | 16.1 | 0.00 | 0.13 | 0.13 | 1 | 1009.2 |
| 20260510102221 | 10 | 142 | 8.0 | 16.1 | 0.00 | 0.13 | 0.13 | 1 | 1009.2 |
| 20260510102025 | 10 | 139 | 6.4 | 16.1 | 0.03 | 0.13 | 0.13 | 1 | 1009.2 |
| 20260510101929 | 10 | 163 | 6.4 | 16.1 | 0.03 | 0.13 | 0.13 | 1 | 1009.2 |
| 20260510101830 | 10 | 122 | 8.0 | 16.1 | 0.03 | 0.13 | 0.13 | 1 | 1009.2 |
| 20260510101753 | 10 | 157 | 6.4 | 16.1 | 0.03 | 0.13 | 0.13 | 1 | 1009.2 |
| 20260510101715 | 10 | 148 | 6.4 | 16.1 | 0.03 | 0.13 | 0.13 | 1 | 1009.2 |
| 20260510101523 | 10 | 104 | 9.7 | 16.1 | 0.03 | 0.13 | 0.13 | 1 | 1009.2 |
| 20260510101438 | 10 | 190 | 9.7 | 20.9 | 0.03 | 0.13 | 0.13 | 1 | 1009.2 |
| 20260510101400 | 10 | 190 | 8.0 | 20.9 | 0.03 | 0.13 | 0.13 | 1 | 1009.2 |
| 20260510101250 | 10 | 178 | 8.0 | 20.9 | 0.03 | 0.13 | 0.13 | 1 | 1009.1 |
| 20260510101133 | 10 | 183 | 8.0 | 20.9 | 0.03 | 0.13 | 0.13 | 1 | 1009.1 |
| 20260510101056 | 10 | 254 | 8.0 | 20.9 | 0.03 | 0.13 | 0.13 | 1 | 1009.1 |
| 20260510101019 | 10 | 162 | 8.0 | 20.9 | 0.03 | 0.13 | 0.13 | 1 | 1009.0 |
| 20260510100823 | 10 | 244 | 8.0 | 20.9 | 0.03 | 0.13 | 0.13 | 1 | 1008.9 |
| 20260510100727 | 10 | 247 | 9.7 | 20.9 | 0.03 | 0.13 | 0.13 | 1 | 1008.7 |
| 20260510100635 | 10 | 217 | 11.3 | 22.5 | 0.03 | 0.13 | 0.13 | 1 | 1008.5 |
| 20260510100556 | 10 | 213 | 9.7 | 16.1 | 0.03 | 0.13 | 0.13 | 1 | 1008.5 |
| 20260510100427 | 10 | 219 | 8.0 | 17.7 | 0.03 | 0.13 | 0.13 | 1 | 1008.2 |
| 20260510100322 | 10 | 207 | 8.0 | 17.7 | 0.03 | 0.13 | 0.13 | 1 | 1008.0 |
| 20260510100133 | 10 | 142 | 11.3 | 17.7 | 0.03 | 0.13 | 0.13 | 1 | 1007.8 |
| 20260510100027 | 10 | 150 | 11.3 | 17.7 | 0.03 | 0.13 | 0.13 | 1 | 1007.8 |
| 20260510095951 | 10 | 123 | 9.7 | 16.1 | 0.03 | 0.13 | 0.13 | 1 | 1007.8 |
| 20260510095907 | 10 | 216 | 8.0 | 16.1 | 0.03 | 0.13 | 0.13 | 1 | 1007.8 |
| 20260510095829 | 10 | 182 | 9.7 | 14.5 | 0.03 | 0.13 | 0.13 | 1 | 1007.9 |
| 20260510095633 | 10 | 185 | 9.7 | 16.1 | 0.03 | 0.13 | 0.13 | 1 | 1008.2 |
| 20260510095539 | 10 | 107 | 9.7 | 16.1 | 0.03 | 0.13 | 0.13 | 1 | 1008.3 |
| 20260510095423 | 10 | 164 | 9.7 | 12.9 | 0.03 | 0.13 | 0.13 | 1 | 1008.3 |
| 20260510095326 | 10 | 138 | 8.0 | 14.5 | 0.03 | 0.13 | 0.13 | 1 | 1008.3 |
| 20260510095232 | 10 | 135 | 8.0 | 12.9 | 0.03 | 0.13 | 0.13 | 1 | 1008.4 |
| 20260510095127 | 10 | 146 | 8.0 | 12.9 | 0.03 | 0.13 | 0.13 | 1 | 1008.5 |
| 20260510095030 | 10 | 147 | 8.0 | 12.9 | 0.03 | 0.13 | 0.13 | 1 | 1008.4 |
| 20260510094933 | 10 | 126 | 6.4 | 12.9 | 0.03 | 0.13 | 0.13 | 1 | 1008.5 |
| 20260510094900 | 10 | 117 | 6.4 | 12.9 | 0.03 | 0.13 | 0.13 | 1 | 1008.5 |
| 20260510094823 | 10 | 146 | 6.4 | 12.9 | 0.03 | 0.13 | 0.13 | 1 | 1008.5 |
| 20260510094626 | 10 | 134 | 6.4 | 12.9 | 0.03 | 0.13 | 0.13 | 1 | 1008.6 |
| 20260510094550 | 10 | 167 | 6.4 | 12.9 | 0.03 | 0.13 | 0.13 | 1 | 1008.6 |
| 20260510094435 | 10 | 121 | 6.4 | 12.9 | 0.03 | 0.13 | 0.13 | 1 | 1008.6 |
| 20260510094356 | 9 | 136 | 4.8 | 8.0 | 0.03 | 0.13 | 0.13 | 1 | 1008.7 |
| 20260510094259 | 9 | 154 | 3.2 | 9.7 | 0.03 | 0.13 | 0.13 | 1 | 1008.7 |
| 20260510094202 | 10 | 134 | 3.2 | 9.7 | 0.03 | 0.13 | 0.13 | 1 | 1008.7 |
| 20260510094126 | 10 | 136 | 3.2 | 9.7 | 0.03 | 0.13 | 0.13 | 1 | 1008.7 |
| 20260510093929 | 10 | 165 | 3.2 | 9.7 | 0.03 | 0.13 | 0.13 | 1 | 1008.6 |
| 20260510093836 | 10 | 132 | 3.2 | 9.7 | 0.03 | 0.13 | 0.13 | 1 | 1008.6 |
| 20260510093737 | 10 | 114 | 1.6 | 9.7 | 0.03 | 0.13 | 0.13 | 1 | 1008.6 |
| 20260510093641 | 10 | 114 | 3.2 | 9.7 | 0.03 | 0.13 | 0.13 | 1 | 1008.6 |
| 20260510093536 | 10 | 112 | 3.2 | 9.7 | 0.03 | 0.13 | 0.13 | 1 | 1008.5 |
| 20260510093428 | 10 | 114 | 3.2 | 8.0 | 0.03 | 0.13 | 0.13 | 1 | 1008.6 |
| 20260510093350 | 10 | 136 | 4.8 | 8.0 | 0.03 | 0.13 | 0.13 | 1 | 1008.6 |
| 20260510093221 | 10 | 123 | 4.8 | 9.7 | 0.03 | 0.13 | 0.13 | 1 | 1008.5 |
| 20260510093136 | 10 | 153 | 3.2 | 8.0 | 0.03 | 0.13 | 0.13 | 1 | 1008.5 |
| 20260510093006 | 10 | 140 | 0.0 | 8.0 | 0.03 | 0.13 | 0.13 | 1 | 1008.6 |
| 20260510092933 | 10 | 195 | 0.0 | 8.0 | 0.03 | 0.13 | 0.13 | 1 | 1008.5 |
| 20260510092738 | 10 | 195 | 3.2 | 8.0 | 0.03 | 0.13 | 0.13 | 1 | 1008.4 |
| 20260510092638 | 10 | 195 | 1.6 | 8.0 | 0.03 | 0.13 | 0.13 | 1 | 1008.4 |
| 20260510092544 | 10 | 136 | 0.0 | 4.8 | 0.03 | 0.13 | 0.13 | 1 | 1008.4 |
| 20260510092505 | 10 | 210 | 0.0 | 0.0 | 0.03 | 0.13 | 0.13 | 1 | 1008.4 |
| 20260510092246 | 10 | 210 | 0.0 | 1.6 | 0.03 | 0.13 | 0.13 | 1 | 1008.3 |
| 20260510092141 | 10 | 210 | 0.0 | 1.6 | 0.03 | 0.13 | 0.13 | 1 | 1008.4 |
| 20260510091932 | 10 | 190 | 0.0 | 4.8 | 0.00 | 0.10 | 0.10 | 1 | 1008.3 |
| 20260510091845 | 10 | 164 | 0.0 | 4.8 | 0.00 | 0.10 | 0.10 | 1 | 1008.3 |
| 20260510091654 | 10 | 155 | 0.0 | 4.8 | 0.00 | 0.10 | 0.10 | 1 | 1008.2 |
| 20260510091541 | 10 | 140 | 0.0 | 4.8 | 0.00 | 0.10 | 0.10 | 1 | 1008.2 |
| 20260510091435 | 10 | 115 | 0.0 | 4.8 | 0.00 | 0.10 | 0.10 | 1 | 1008.2 |
| 20260510091318 | 10 | 115 | 0.0 | 8.0 | 0.00 | 0.10 | 0.10 | 1 | 1008.1 |
| 20260510091251 | 10 | 115 | 0.0 | 8.0 | 0.00 | 0.10 | 0.10 | 1 | 1008.1 |
| 20260510091213 | 10 | 115 | 1.6 | 8.0 | 0.00 | 0.10 | 0.10 | 1 | 1008.1 |
| 20260510091057 | 10 | 115 | 3.2 | 8.0 | 0.00 | 0.10 | 0.10 | 1 | 1008.1 |
| 20260510091020 | 10 | 115 | 1.6 | 8.0 | 0.00 | 0.10 | 0.10 | 1 | 1008.1 |
| 20260510090826 | 10 | 127 | 1.6 | 8.0 | 0.00 | 0.10 | 0.10 | 1 | 1008.1 |
| 20260510090732 | 10 | 127 | 3.2 | 9.7 | 0.00 | 0.10 | 0.10 | 1 | 1008.0 |
| 20260510090647 | 10 | 117 | 3.2 | 9.7 | 0.00 | 0.10 | 0.10 | 1 | 1008.1 |
| 20260510090549 | 10 | 145 | 3.2 | 9.7 | 0.00 | 0.10 | 0.10 | 1 | 1008.1 |
| 20260510090358 | 10 | 155 | 3.2 | 11.3 | 0.00 | 0.10 | 0.10 | 1 | 1008.0 |
| 20260510090252 | 10 | 154 | 3.2 | 11.3 | 0.00 | 0.10 | 0.10 | 1 | 1008.0 |
| 20260510090214 | 10 | 168 | 3.2 | 11.3 | 0.00 | 0.10 | 0.10 | 1 | 1008.0 |
| 20260510090026 | 10 | 153 | 4.8 | 11.3 | 0.00 | 0.10 | 0.10 | 1 | 1008.0 |
| 20260510085941 | 10 | 192 | 6.4 | 11.3 | 0.00 | 0.10 | 0.10 | 1 | 1008.0 |
| 20260510085731 | 10 | 182 | 6.4 | 11.3 | 0.00 | 0.10 | 0.10 | 1 | 1008.0 |
| 20260510085647 | 10 | 159 | 6.4 | 11.3 | 0.00 | 0.10 | 0.10 | 1 | 1008.0 |
| 20260510085518 | 10 | 228 | 4.8 | 12.9 | 0.00 | 0.10 | 0.10 | 1 | 1008.0 |
| 20260510085445 | 10 | 220 | 3.2 | 12.9 | 0.00 | 0.10 | 0.10 | 1 | 1008.0 |
| 20260510085229 | 10 | 250 | 3.2 | 14.5 | 0.00 | 0.10 | 0.10 | 1 | 1007.9 |
| 20260510085152 | 10 | 250 | 4.8 | 14.5 | 0.00 | 0.10 | 0.10 | 1 | 1007.8 |
| 20260510085054 | 10 | 234 | 4.8 | 14.5 | 0.00 | 0.10 | 0.10 | 1 | 1007.7 |
| 20260510084927 | 10 | 205 | 8.0 | 14.5 | 0.00 | 0.10 | 0.10 | 1 | 1007.6 |
| 20260510084852 | 10 | 258 | 8.0 | 14.5 | 0.00 | 0.10 | 0.10 | 1 | 1007.6 |
| 20260510084756 | 10 | 232 | 6.4 | 14.5 | 0.00 | 0.10 | 0.10 | 1 | 1007.5 |
| 20260510084719 | 10 | 229 | 4.8 | 14.5 | 0.00 | 0.10 | 0.10 | 1 | 1007.5 |
| 20260510084523 | 10 | 207 | 6.4 | 14.5 | 0.00 | 0.10 | 0.10 | 1 | 1007.5 |
| 20260510084430 | 10 | 180 | 6.4 | 16.1 | 0.00 | 0.10 | 0.10 | 1 | 1007.5 |
| 20260510084334 | 10 | 197 | 4.8 | 12.9 | 0.00 | 0.10 | 0.10 | 1 | 1007.5 |
| 20260510084256 | 10 | 140 | 4.8 | 12.9 | 0.00 | 0.10 | 0.10 | 1 | 1007.5 |
| 20260510084217 | 10 | 163 | 4.8 | 12.9 | 0.00 | 0.10 | 0.10 | 1 | 1007.6 |
| 20260510084040 | 10 | 111 | 4.8 | 12.9 | 0.00 | 0.10 | 0.10 | 1 | 1007.7 |
| 20260510083944 | 10 | 157 | 6.4 | 12.9 | 0.00 | 0.10 | 0.10 | 1 | 1007.7 |
| 20260510083827 | 10 | 107 | 6.4 | 12.9 | 0.00 | 0.10 | 0.10 | 1 | 1007.8 |
| 20260510083750 | 10 | 134 | 6.4 | 12.9 | 0.00 | 0.10 | 0.10 | 1 | 1007.8 |
| 20260510083712 | 10 | 147 | 6.4 | 12.9 | 0.03 | 0.10 | 0.10 | 1 | 1007.9 |
| 20260510083617 | 10 | 134 | 6.4 | 12.9 | 0.03 | 0.10 | 0.10 | 1 | 1007.9 |
| 20260510083540 | 10 | 133 | 6.4 | 12.9 | 0.03 | 0.10 | 0.10 | 1 | 1008.0 |
| 20260510083415 | 10 | 133 | 4.8 | 11.3 | 0.03 | 0.10 | 0.10 | 1 | 1008.0 |
| 20260510083330 | 10 | 155 | 4.8 | 11.3 | 0.03 | 0.10 | 0.10 | 1 | 1008.0 |
| 20260510083200 | 10 | 132 | 1.6 | 11.3 | 0.03 | 0.10 | 0.10 | 1 | 1008.0 |
| 20260510083101 | 10 | 178 | 1.6 | 11.3 | 0.03 | 0.10 | 0.10 | 1 | 1008.0 |
| 20260510083016 | 10 | 167 | 3.2 | 11.3 | 0.03 | 0.10 | 0.10 | 1 | 1008.0 |
| 20260510082846 | 10 | 167 | 3.2 | 11.3 | 0.03 | 0.10 | 0.10 | 1 | 1008.0 |
| 20260510082745 | 10 | 171 | 4.8 | 11.3 | 0.03 | 0.10 | 0.10 | 1 | 1007.9 |
| 20260510082648 | 10 | 169 | 4.8 | 11.3 | 0.03 | 0.10 | 0.10 | 1 | 1007.9 |
| 20260510082532 | 10 | 157 | 4.8 | 12.9 | 0.03 | 0.10 | 0.10 | 1 | 1007.9 |
| 20260510082456 | 10 | 126 | 3.2 | 12.9 | 0.03 | 0.10 | 0.10 | 1 | 1007.9 |
| 20260510082419 | 10 | 149 | 3.2 | 12.9 | 0.03 | 0.10 | 0.10 | 1 | 1008.0 |
| 20260510082158 | 11 | 182 | 4.8 | 12.9 | 0.05 | 0.10 | 0.10 | 1 | 1008.0 |
| 20260510082103 | 11 | 188 | 4.8 | 14.5 | 0.05 | 0.10 | 0.10 | 1 | 1008.0 |
| 20260510081914 | 11 | 179 | 8.0 | 14.5 | 0.05 | 0.10 | 0.10 | 1 | 1008.0 |
| 20260510081829 | 11 | 126 | 8.0 | 14.5 | 0.05 | 0.10 | 0.10 | 1 | 1008.0 |
| 20260510081639 | 11 | 215 | 6.4 | 17.7 | 0.05 | 0.10 | 0.10 | 1 | 1008.0 |
| 20260510081532 | 11 | 173 | 6.4 | 17.7 | 0.05 | 0.10 | 0.10 | 1 | 1007.9 |
| 20260510081457 | 11 | 229 | 8.0 | 17.7 | 0.05 | 0.10 | 0.10 | 1 | 1007.9 |
| 20260510081359 | 11 | 213 | 8.0 | 17.7 | 0.05 | 0.10 | 0.10 | 1 | 1007.8 |
| 20260510081302 | 11 | 192 | 9.7 | 17.7 | 0.05 | 0.10 | 0.10 | 1 | 1007.8 |
| 20260510081224 | 11 | 174 | 8.0 | 17.7 | 0.05 | 0.10 | 0.10 | 1 | 1007.7 |
| 20260510081027 | 11 | 191 | 9.7 | 17.7 | 0.05 | 0.10 | 0.10 | 1 | 1007.7 |
| 20260510080955 | 11 | 166 | 9.7 | 17.7 | 0.05 | 0.10 | 0.10 | 1 | 1007.7 |
| 20260510080838 | 11 | 202 | 6.4 | 17.7 | 0.05 | 0.10 | 0.10 | 1 | 1007.8 |
| 20260510080801 | 11 | 240 | 4.8 | 17.7 | 0.05 | 0.10 | 0.10 | 1 | 1007.8 |
| 20260510080718 | 11 | 239 | 6.4 | 17.7 | 0.05 | 0.10 | 0.10 | 1 | 1007.7 |
| 20260510080528 | 11 | 161 | 8.0 | 17.7 | 0.05 | 0.10 | 0.10 | 1 | 1007.7 |
| 20260510080452 | 11 | 130 | 9.7 | 17.7 | 0.05 | 0.10 | 0.10 | 1 | 1007.8 |
| 20260510080334 | 11 | 144 | 11.3 | 20.9 | 0.05 | 0.10 | 0.10 | 1 | 1007.9 |
| 20260510080246 | 11 | 163 | 9.7 | 20.9 | 0.05 | 0.10 | 0.10 | 1 | 1008.0 |
| 20260510080119 | 11 | 171 | 6.4 | 22.5 | 0.05 | 0.10 | 0.10 | 1 | 1008.0 |
| 20260510080052 | 11 | 160 | 8.0 | 22.5 | 0.05 | 0.10 | 0.10 | 1 | 1008.0 |
| 20260510080017 | 11 | 193 | 8.0 | 22.5 | 0.05 | 0.10 | 0.10 | 1 | 1008.0 |
| 20260510075831 | 11 | 212 | 9.7 | 22.5 | 0.08 | 0.10 | 0.10 | 1 | 1008.0 |
| 20260510075754 | 11 | 215 | 11.3 | 22.5 | 0.08 | 0.10 | 0.10 | 1 | 1008.0 |
| 20260510075637 | 11 | 122 | 14.5 | 22.5 | 0.10 | 0.10 | 0.10 | 1 | 1008.1 |
| 20260510075600 | 11 | 175 | 14.5 | 22.5 | 0.10 | 0.10 | 0.10 | 1 | 1008.1 |
| 20260510075515 | 11 | 153 | 12.9 | 22.5 | 0.10 | 0.10 | 0.10 | 1 | 1008.0 |
| 20260510075344 | 11 | 194 | 14.5 | 22.5 | 0.10 | 0.10 | 0.10 | 1 | 1008.1 |
| 20260510075247 | 11 | 133 | 14.5 | 22.5 | 0.10 | 0.10 | 0.10 | 1 | 1008.1 |
| 20260510075111 | 11 | 137 | 12.9 | 19.3 | 0.10 | 0.10 | 0.10 | 1 | 1008.1 |
| 20260510075041 | 11 | 163 | 12.9 | 19.3 | 0.10 | 0.10 | 0.10 | 1 | 1008.1 |
| 20260510074911 | 11 | 181 | 11.3 | 20.9 | 0.10 | 0.10 | 0.10 | 1 | 1008.2 |
| 20260510074817 | 11 | 146 | 11.3 | 17.7 | 0.10 | 0.10 | 0.10 | 1 | 1008.3 |
| 20260510074659 | 11 | 149 | 9.7 | 17.7 | 0.10 | 0.10 | 0.10 | 1 | 1008.3 |
| 20260510074621 | 11 | 153 | 9.7 | 22.5 | 0.10 | 0.10 | 0.10 | 1 | 1008.4 |
| 20260510074423 | 11 | 142 | 11.3 | 22.5 | 0.10 | 0.10 | 0.10 | 1 | 1008.4 |
| 20260510074326 | 11 | 118 | 11.3 | 22.5 | 0.10 | 0.10 | 0.10 | 1 | 1008.4 |
| 20260510074228 | 11 | 163 | 11.3 | 22.5 | 0.10 | 0.10 | 0.10 | 1 | 1008.4 |
| 20260510074152 | 11 | 150 | 8.0 | 22.5 | 0.10 | 0.10 | 0.10 | 1 | 1008.4 |
| 20260510074116 | 11 | 158 | 8.0 | 22.5 | 0.10 | 0.10 | 0.10 | 1 | 1008.4 |
| 20260510073938 | 11 | 178 | 11.3 | 22.5 | 0.10 | 0.10 | 0.10 | 1 | 1008.4 |
| 20260510073842 | 11 | 179 | 12.9 | 22.5 | 0.10 | 0.10 | 0.10 | 1 | 1008.4 |
| 20260510073729 | 11 | 173 | 11.3 | 20.9 | 0.08 | 0.08 | 0.08 | 1 | 1008.4 |
| 20260510073651 | 11 | 125 | 9.7 | 16.1 | 0.08 | 0.08 | 0.08 | 1 | 1008.4 |
| 20260510073522 | 11 | 157 | 6.4 | 16.1 | 0.08 | 0.08 | 0.08 | 1 | 1008.4 |
| 20260510073437 | 11 | 120 | 8.0 | 16.1 | 0.08 | 0.08 | 0.08 | 1 | 1008.5 |
| 20260510073309 | 11 | 193 | 9.7 | 16.1 | 0.08 | 0.08 | 0.08 | 1 | 1008.5 |
| 20260510073231 | 11 | 137 | 9.7 | 20.9 | 0.08 | 0.08 | 0.08 | 1 | 1008.6 |
| 20260510073034 | 11 | 118 | 6.4 | 20.9 | 0.08 | 0.08 | 0.08 | 1 | 1008.6 |
| 20260510072958 | 11 | 123 | 6.4 | 20.9 | 0.08 | 0.08 | 0.08 | 1 | 1008.6 |
| 20260510072902 | 11 | 167 | 6.4 | 20.9 | 0.08 | 0.08 | 0.08 | 1 | 1008.6 |
| 20260510072824 | 11 | 157 | 6.4 | 20.9 | 0.08 | 0.08 | 0.08 | 1 | 1008.6 |
| 20260510072639 | 11 | 188 | 8.0 | 20.9 | 0.08 | 0.08 | 0.08 | 1 | 1008.6 |
| 20260510072533 | 11 | 223 | 9.7 | 20.9 | 0.08 | 0.08 | 0.08 | 1 | 1008.5 |
| 20260510072457 | 11 | 192 | 9.7 | 20.9 | 0.08 | 0.08 | 0.08 | 1 | 1008.5 |
| 20260510072402 | 11 | 150 | 6.4 | 12.9 | 0.08 | 0.08 | 0.08 | 1 | 1008.4 |
| 20260510072324 | 11 | 169 | 4.8 | 12.9 | 0.08 | 0.08 | 0.08 | 1 | 1008.3 |
| 20260510072155 | 11 | 150 | 8.0 | 12.9 | 0.05 | 0.05 | 0.05 | 1 | 1008.4 |
| 20260510072029 | 11 | 141 | 8.0 | 14.5 | 0.05 | 0.05 | 0.05 | 1 | 1008.4 |
| 20260510071924 | 11 | 158 | 8.0 | 14.5 | 0.05 | 0.05 | 0.05 | 1 | 1008.4 |
| 20260510071845 | 11 | 138 | 8.0 | 14.5 | 0.05 | 0.05 | 0.05 | 1 | 1008.4 |
| 20260510071717 | 11 | 186 | 9.7 | 14.5 | 0.05 | 0.05 | 0.05 | 1 | 1008.5 |
| 20260510071622 | 11 | 173 | 8.0 | 16.1 | 0.05 | 0.05 | 0.05 | 1 | 1008.5 |
| 20260510071515 | 11 | 161 | 6.4 | 14.5 | 0.05 | 0.05 | 0.05 | 1 | 1008.5 |
| 20260510071436 | 11 | 188 | 8.0 | 14.5 | 0.05 | 0.05 | 0.05 | 1 | 1008.5 |
| 20260510071246 | 11 | 120 | 9.7 | 14.5 | 0.05 | 0.05 | 0.05 | 1 | 1008.5 |
| 20260510071140 | 11 | 218 | 9.7 | 16.1 | 0.05 | 0.05 | 0.05 | 1 | 1008.4 |
| 20260510071010 | 11 | 128 | 9.7 | 19.3 | 0.05 | 0.05 | 0.05 | 1 | 1008.5 |
| 20260510070933 | 11 | 162 | 9.7 | 19.3 | 0.05 | 0.05 | 0.05 | 1 | 1008.6 |
| 20260510070734 | 11 | 177 | 9.7 | 19.3 | 0.05 | 0.05 | 0.05 | 1 | 1008.5 |
| 20260510070658 | 11 | 178 | 9.7 | 19.3 | 0.05 | 0.05 | 0.05 | 1 | 1008.5 |
| 20260510070523 | 11 | 170 | 9.7 | 19.3 | 0.05 | 0.05 | 0.05 | 1 | 1008.6 |
| 20260510070441 | 11 | 162 | 11.3 | 19.3 | 0.05 | 0.05 | 0.05 | 1 | 1008.6 |
| 20260510070311 | 11 | 121 | 12.9 | 19.3 | 0.05 | 0.05 | 0.05 | 1 | 1008.5 |
| 20260510070233 | 11 | 146 | 11.3 | 22.5 | 0.05 | 0.05 | 0.05 | 1 | 1008.5 |
| 20260510070104 | 11 | 146 | 8.0 | 19.3 | 0.05 | 0.05 | 0.05 | 1 | 1008.6 |
| 20260510070020 | 11 | 178 | 8.0 | 19.3 | 0.03 | 0.03 | 0.03 | 1 | 1008.6 |
| 20260510065830 | 11 | 167 | 8.0 | 19.3 | 0.03 | 0.03 | 0.03 | 1 | 1008.8 |
| 20260510065731 | 11 | 178 | 8.0 | 19.3 | 0.00 | 0.00 | 0.00 | 1 | 1008.7 |
| 20260510065534 | 11 | 204 | 8.0 | 17.7 | 0.00 | 0.00 | 0.00 | 1 | 1008.7 |
| 20260510065458 | 11 | 173 | 9.7 | 17.7 | 0.00 | 0.00 | 0.00 | 1 | 1008.7 |
| 20260510065321 | 11 | 152 | 12.9 | 17.7 | 0.00 | 0.00 | 0.00 | 1 | 1008.7 |
| 20260510065242 | 11 | 194 | 11.3 | 17.7 | 0.00 | 0.00 | 0.00 | 1 | 1008.7 |
| 20260510065144 | 11 | 150 | 8.0 | 17.7 | 0.00 | 0.00 | 0.00 | 1 | 1008.7 |
| 20260510065027 | 11 | 174 | 9.7 | 17.7 | 0.00 | 0.00 | 0.00 | 1 | 1008.6 |
| 20260510064950 | 11 | 201 | 11.3 | 17.7 | 0.00 | 0.00 | 0.00 | 1 | 1008.7 |
| 20260510064833 | 11 | 188 | 9.7 | 17.7 | 0.00 | 0.00 | 0.00 | 1 | 1008.7 |
| 20260510064733 | 11 | 194 | 9.7 | 19.3 | 0.00 | 0.00 | 0.00 | 1 | 1008.6 |
| 20260510064604 | 12 | 162 | 11.3 | 19.3 | 0.00 | 0.00 | 0.00 | 1 | 1008.6 |
| 20260510064506 | 12 | 175 | 11.3 | 19.3 | 0.00 | 0.00 | 0.00 | 1 | 1008.6 |
| 20260510064328 | 12 | 182 | 9.7 | 19.3 | 0.00 | 0.00 | 0.00 | 1 | 1008.5 |
| 20260510064252 | 12 | 155 | 11.3 | 19.3 | 0.00 | 0.00 | 0.00 | 1 | 1008.5 |
| 20260510064210 | 12 | 207 | 12.9 | 19.3 | 0.00 | 0.00 | 0.00 | 1 | 1008.6 |
| 20260510064042 | 12 | 163 | 8.0 | 19.3 | 0.00 | 0.00 | 0.00 | 1 | 1008.6 |
| 20260510063942 | 12 | 167 | 9.7 | 19.3 | 0.00 | 0.00 | 0.00 | 1 | 1008.6 |
| 20260510063815 | 12 | 174 | 9.7 | 19.3 | 0.00 | 0.00 | 0.00 | 1 | 1008.5 |
| 20260510063726 | 12 | 134 | 11.3 | 19.3 | 0.00 | 0.00 | 0.00 | 1 | 1008.4 |
| 20260510063538 | 12 | 177 | 12.9 | 22.5 | 0.00 | 0.00 | 0.00 | 1 | 1008.5 |
| 20260510063432 | 11 | 155 | 12.9 | 22.5 | 0.00 | 0.00 | 0.00 | 1 | 1008.5 |
| 20260510063356 | 11 | 152 | 11.3 | 22.5 | 0.00 | 0.00 | 0.00 | 1 | 1008.5 |
| 20260510063239 | 11 | 200 | 9.7 | 22.5 | 0.00 | 0.00 | 0.00 | 1 | 1008.4 |
| 20260510063202 | 11 | 165 | 9.7 | 22.5 | 0.00 | 0.00 | 0.00 | 1 | 1008.4 |
| 20260510063122 | 11 | 173 | 11.3 | 22.5 | 0.00 | 0.00 | 0.00 | 1 | 1008.3 |
| 20260510062944 | 11 | 167 | 9.7 | 22.5 | 0.00 | 0.00 | 0.00 | 1 | 1008.2 |
| 20260510062839 | 11 | 154 | 14.5 | 22.5 | 0.00 | 0.00 | 0.00 | 1 | 1008.2 |
| 20260510062734 | 11 | 177 | 12.9 | 22.5 | 0.00 | 0.00 | 0.00 | 1 | 1008.2 |
| 20260510062655 | 11 | 186 | 8.0 | 22.5 | 0.00 | 0.00 | 0.00 | 1 | 1008.2 |
| 20260510062506 | 11 | 193 | 11.3 | 22.5 | 0.00 | 0.00 | 0.00 | 1 | 1008.2 |
| 20260510062422 | 11 | 168 | 9.7 | 22.5 | 0.00 | 0.00 | 0.00 | 1 | 1008.2 |
| 20260510062252 | 11 | 234 | 9.7 | 16.1 | 0.00 | 0.00 | 0.00 | 1 | 1008.1 |
| 20260510062155 | 11 | 178 | 8.0 | 16.1 | 0.00 | 0.00 | 0.00 | 1 | 1008.1 |
| 20260510062022 | 11 | 180 | 4.8 | 16.1 | 0.00 | 0.00 | 0.00 | 1 | 1008.1 |
| 20260510061946 | 11 | 162 | 6.4 | 16.1 | 0.00 | 0.00 | 0.00 | 1 | 1008.1 |
| 20260510061842 | 11 | 134 | 9.7 | 16.1 | 0.00 | 0.00 | 0.00 | 1 | 1008.1 |
| 20260510061725 | 11 | 163 | 9.7 | 19.3 | 0.00 | 0.00 | 0.00 | 1 | 1008.1 |
| 20260510061649 | 11 | 175 | 6.4 | 11.3 | 0.00 | 0.00 | 0.00 | 1 | 1008.1 |
| 20260510061520 | 11 | 155 | 4.8 | 8.0 | 0.00 | 0.00 | 0.00 | 1 | 1008.0 |
| 20260510061339 | 11 | 143 | 4.8 | 12.9 | 0.00 | 0.00 | 0.00 | 1 | 1008.0 |
| 20260510061243 | 11 | 151 | 4.8 | 12.9 | 0.00 | 0.00 | 0.00 | 1 | 1008.0 |
| 20260510061131 | 11 | 185 | 3.2 | 12.9 | 0.00 | 0.00 | 0.00 | 1 | 1008.0 |
| 20260510061052 | 11 | 135 | 3.2 | 12.9 | 0.00 | 0.00 | 0.00 | 1 | 1008.0 |
| 20260510060934 | 11 | 155 | 4.8 | 12.9 | 0.00 | 0.00 | 0.00 | 1 | 1008.0 |
| 20260510060857 | 11 | 155 | 4.8 | 12.9 | 0.00 | 0.00 | 0.00 | 1 | 1008.0 |
| 20260510060820 | 11 | 150 | 4.8 | 12.9 | 0.00 | 0.00 | 0.00 | 1 | 1008.0 |
| 20260510060644 | 11 | 128 | 4.8 | 12.9 | 0.00 | 0.00 | 0.00 | 1 | 1008.0 |
| 20260510060605 | 11 | 147 | 4.8 | 9.7 | 0.00 | 0.00 | 0.00 | 1 | 1008.0 |
| 20260510060415 | 11 | 142 | 4.8 | 9.7 | 0.00 | 0.00 | 0.00 | 1 | 1008.0 |
| 20260510060330 | 11 | 171 | 4.8 | 9.7 | 0.00 | 0.00 | 0.00 | 1 | 1008.0 |
| 20260510060148 | 11 | 120 | 4.8 | 9.7 | 0.00 | 0.00 | 0.00 | 1 | 1008.0 |
| 20260510060051 | 11 | 166 | 4.8 | 9.7 | 0.00 | 0.00 | 0.00 | 1 | 1008.0 |
| 20260510060007 | 11 | 166 | 4.8 | 9.7 | 0.00 | 0.00 | 0.00 | 1 | 1008.1 |
| 20260510055944 | 11 | 103 | 4.8 | 9.7 | 0.00 | 0.00 | 0.00 | 1 | 1008.1 |
| 20260510055814 | 11 | 107 | 6.4 | 9.7 | 0.00 | 0.00 | 0.00 | 1 | 1008.1 |
| 20260510055728 | 11 | 157 | 6.4 | 9.7 | 0.00 | 0.00 | 0.00 | 1 | 1008.1 |
| 20260510055610 | 11 | 144 | 6.4 | 11.3 | 0.00 | 0.00 | 0.00 | 1 | 1008.1 |
| 20260510055531 | 11 | 196 | 4.8 | 11.3 | 0.00 | 0.00 | 0.00 | 1 | 1008.1 |
| 20260510055335 | 11 | 144 | 4.8 | 11.3 | 0.00 | 0.00 | 0.00 | 1 | 1008.1 |
| 20260510055239 | 11 | 129 | 6.4 | 11.3 | 0.00 | 0.00 | 0.00 | 1 | 1008.1 |
| 20260510055121 | 11 | 144 | 4.8 | 11.3 | 0.00 | 0.00 | 0.00 | 1 | 1008.0 |
| 20260510055045 | 11 | 145 | 4.8 | 12.9 | 0.00 | 0.00 | 0.00 | 1 | 1008.0 |
| 20260510054926 | 11 | 141 | 3.2 | 12.9 | 0.00 | 0.00 | 0.00 | 1 | 1008.1 |
| 20260510054830 | 11 | 131 | 4.8 | 14.5 | 0.00 | 0.00 | 0.00 | 1 | 1008.1 |
| 20260510054753 | 11 | 119 | 6.4 | 14.5 | 0.00 | 0.00 | 0.00 | 1 | 1008.1 |
| 20260510054716 | 11 | 158 | 8.0 | 14.5 | 0.00 | 0.00 | 0.00 | 1 | 1008.2 |
| 20260510054538 | 11 | 183 | 4.8 | 14.5 | 0.00 | 0.00 | 0.00 | 1 | 1008.4 |
| 20260510054442 | 11 | 173 | 4.8 | 16.1 | 0.00 | 0.00 | 0.00 | 1 | 1008.4 |
| 20260510054327 | 11 | 175 | 6.4 | 16.1 | 0.00 | 0.00 | 0.00 | 1 | 1008.3 |
| 20260510054248 | 11 | 180 | 6.4 | 16.1 | 0.00 | 0.00 | 0.00 | 1 | 1008.3 |
| 20260510054031 | 11 | 127 | 8.0 | 16.1 | 0.00 | 0.00 | 0.00 | 1 | 1008.3 |
| 20260510053937 | 11 | 196 | 9.7 | 16.1 | 0.00 | 0.00 | 0.00 | 1 | 1008.2 |
| 20260510053843 | 11 | 198 | 9.7 | 16.1 | 0.00 | 0.00 | 0.00 | 1 | 1008.2 |
| 20260510053723 | 11 | 138 | 9.7 | 16.1 | 0.00 | 0.00 | 0.00 | 1 | 1008.1 |
| 20260510053626 | 11 | 231 | 9.7 | 16.1 | 0.00 | 0.00 | 0.00 | 1 | 1008.1 |
| 20260510053549 | 11 | 144 | 9.7 | 16.1 | 0.00 | 0.00 | 0.00 | 1 | 1008.1 |
| 20260510053512 | 11 | 167 | 8.0 | 16.1 | 0.00 | 0.00 | 0.00 | 1 | 1008.1 |
| 20260510053416 | 11 | 159 | 8.0 | 16.1 | 0.00 | 0.00 | 0.00 | 1 | 1008.0 |
| 20260510053339 | 11 | 154 | 8.0 | 27.4 | 0.00 | 0.00 | 0.00 | 1 | 1008.1 |
| 20260510053121 | 11 | 156 | 8.0 | 27.4 | 0.00 | 0.00 | 0.00 | 1 | 1008.1 |
| 20260510053039 | 11 | 149 | 8.0 | 27.4 | 0.00 | 0.00 | 0.00 | 1 | 1008.1 |
| 20260510052922 | 11 | 166 | 8.0 | 27.4 | 0.00 | 0.00 | 0.00 | 1 | 1008.1 |
| 20260510052845 | 11 | 132 | 8.0 | 27.4 | 0.00 | 0.00 | 0.00 | 1 | 1008.1 |
| 20260510052808 | 11 | 200 | 9.7 | 27.4 | 0.00 | 0.00 | 0.00 | 1 | 1008.0 |
| 20260510052652 | 11 | 167 | 12.9 | 27.4 | 0.00 | 0.00 | 0.00 | 1 | 1008.1 |
| 20260510052551 | 11 | 153 | 14.5 | 27.4 | 0.00 | 0.00 | 0.00 | 1 | 1008.1 |
| 20260510052423 | 11 | 184 | 8.0 | 25.7 | 0.00 | 0.00 | 0.00 | 1 | 1008.0 |
| 20260510052318 | 11 | 171 | 11.3 | 25.7 | 0.00 | 0.00 | 0.00 | 1 | 1008.1 |
| 20260510052129 | 11 | 151 | 9.7 | 25.7 | 0.00 | 0.00 | 0.00 | 1 | 1008.1 |
| 20260510052044 | 11 | 158 | 11.3 | 25.7 | 0.00 | 0.00 | 0.00 | 1 | 1008.1 |
| 20260510051915 | 11 | 135 | 12.9 | 25.7 | 0.00 | 0.00 | 0.00 | 1 | 1008.1 |
| 20260510051842 | 11 | 162 | 12.9 | 24.1 | 0.00 | 0.00 | 0.00 | 1 | 1008.1 |
| 20260510051713 | 11 | 184 | 9.7 | 19.3 | 0.00 | 0.00 | 0.00 | 1 | 1008.1 |
| 20260510051627 | 11 | 145 | 6.4 | 19.3 | 0.00 | 0.00 | 0.00 | 1 | 1008.1 |
| 20260510051407 | 11 | 196 | 9.7 | 19.3 | 0.00 | 0.00 | 0.00 | 1 | 1008.1 |
| 20260510051331 | 11 | 126 | 11.3 | 19.3 | 0.00 | 0.00 | 0.00 | 1 | 1008.0 |
| 20260510051133 | 11 | 195 | 12.9 | 22.5 | 0.00 | 0.00 | 0.00 | 1 | 1008.1 |
| 20260510051057 | 11 | 219 | 9.7 | 22.5 | 0.00 | 0.00 | 0.00 | 1 | 1008.1 |
| 20260510050940 | 11 | 156 | 9.7 | 22.5 | 0.00 | 0.00 | 0.00 | 1 | 1008.1 |
| 20260510050903 | 11 | 131 | 11.3 | 22.5 | 0.00 | 0.00 | 0.00 | 1 | 1008.1 |
| 20260510050725 | 11 | 157 | 11.3 | 22.5 | 0.00 | 0.00 | 0.00 | 1 | 1008.2 |
| 20260510050653 | 11 | 94 | 9.7 | 22.5 | 0.00 | 0.00 | 0.00 | 1 | 1008.2 |
| 20260510050609 | 11 | 137 | 12.9 | 22.5 | 0.00 | 0.00 | 0.00 | 1 | 1008.2 |
| 20260510050419 | 11 | 130 | 16.1 | 22.5 | 0.00 | 0.00 | 0.00 | 1 | 1008.2 |
| 20260510050342 | 11 | 171 | 12.9 | 22.5 | 0.00 | 0.00 | 0.00 | 1 | 1008.2 |
| 20260510050213 | 11 | 145 | 8.0 | 19.3 | 0.00 | 0.00 | 0.00 | 1 | 1008.1 |
| 20260510050105 | 11 | 173 | 8.0 | 19.3 | 0.00 | 0.00 | 0.00 | 1 | 1008.1 |
| 20260510045944 | 11 | 157 | 12.9 | 19.3 | 0.00 | 0.00 | 0.00 | 1 | 1008.1 |
| 20260510045847 | 11 | 151 | 12.9 | 19.3 | 0.00 | 0.00 | 0.00 | 1 | 1008.1 |
| 20260510045743 | 11 | 180 | 11.3 | 19.3 | 0.00 | 0.00 | 0.00 | 1 | 1008.1 |
| 20260510045623 | 11 | 139 | 8.0 | 19.3 | 0.00 | 0.00 | 0.00 | 1 | 1008.1 |
| 20260510045546 | 11 | 172 | 9.7 | 19.3 | 0.00 | 0.00 | 0.00 | 1 | 1008.1 |
| 20260510045513 | 11 | 161 | 9.7 | 24.1 | 0.00 | 0.00 | 0.00 | 1 | 1008.1 |
| 20260510045417 | 11 | 184 | 8.0 | 24.1 | 0.00 | 0.00 | 0.00 | 1 | 1008.2 |
| 20260510045319 | 11 | 153 | 8.0 | 24.1 | 0.00 | 0.00 | 0.00 | 1 | 1008.2 |
| 20260510045131 | 11 | 125 | 8.0 | 24.1 | 0.00 | 0.00 | 0.00 | 1 | 1008.3 |
| 20260510045047 | 11 | 195 | 6.4 | 24.1 | 0.00 | 0.00 | 0.00 | 1 | 1008.2 |
| 20260510044929 | 11 | 141 | 8.0 | 24.1 | 0.00 | 0.00 | 0.00 | 1 | 1008.2 |
| 20260510044833 | 11 | 141 | 8.0 | 24.1 | 0.00 | 0.00 | 0.00 | 1 | 1008.2 |
| 20260510044757 | 11 | 164 | 9.7 | 24.1 | 0.00 | 0.00 | 0.00 | 1 | 1008.2 |
| 20260510044713 | 11 | 143 | 12.9 | 24.1 | 0.00 | 0.00 | 0.00 | 1 | 1008.2 |
| 20260510044528 | 11 | 151 | 11.3 | 16.1 | 0.00 | 0.00 | 0.00 | 1 | 1008.2 |
| 20260510044421 | 11 | 159 | 11.3 | 16.1 | 0.00 | 0.00 | 0.00 | 1 | 1008.2 |
| 20260510044232 | 11 | 105 | 9.7 | 16.1 | 0.00 | 0.00 | 0.00 | 1 | 1008.2 |
| 20260510044146 | 11 | 185 | 9.7 | 16.1 | 0.00 | 0.00 | 0.00 | 1 | 1008.2 |
| 20260510044017 | 11 | 153 | 4.8 | 16.1 | 0.00 | 0.00 | 0.00 | 1 | 1008.1 |
| 20260510043937 | 11 | 145 | 4.8 | 16.1 | 0.00 | 0.00 | 0.00 | 1 | 1008.0 |
| 20260510043741 | 11 | 164 | 6.4 | 16.1 | 0.00 | 0.00 | 0.00 | 1 | 1008.0 |
| 20260510043644 | 11 | 153 | 8.0 | 16.1 | 0.00 | 0.00 | 0.00 | 1 | 1008.0 |
| 20260510043526 | 11 | 136 | 8.0 | 16.1 | 0.00 | 0.00 | 0.00 | 1 | 1008.0 |
| 20260510043455 | 11 | 175 | 6.4 | 16.1 | 0.00 | 0.00 | 0.00 | 1 | 1008.0 |
| 20260510043410 | 11 | 126 | 4.8 | 16.1 | 0.00 | 0.00 | 0.00 | 1 | 1008.1 |
| 20260510043220 | 11 | 173 | 8.0 | 16.1 | 0.00 | 0.00 | 0.00 | 1 | 1008.1 |
| 20260510043122 | 11 | 168 | 8.0 | 17.7 | 0.00 | 0.00 | 0.00 | 1 | 1008.1 |
| 20260510042935 | 11 | 105 | 8.0 | 16.1 | 0.00 | 0.00 | 0.00 | 1 | 1008.1 |
| 20260510042859 | 11 | 192 | 8.0 | 16.1 | 0.00 | 0.00 | 0.00 | 1 | 1008.1 |
| 20260510042723 | 11 | 165 | 8.0 | 17.7 | 0.00 | 0.00 | 0.00 | 1 | 1008.1 |
| 20260510042637 | 11 | 144 | 4.8 | 12.9 | 0.00 | 0.00 | 0.00 | 1 | 1008.1 |
| 20260510042508 | 11 | 160 | 3.2 | 16.1 | 0.00 | 0.00 | 0.00 | 1 | 1008.1 |
| 20260510042431 | 11 | 168 | 3.2 | 16.1 | 0.00 | 0.00 | 0.00 | 1 | 1008.1 |
| 20260510042256 | 11 | 163 | 6.4 | 16.1 | 0.00 | 0.00 | 0.00 | 1 | 1008.1 |
| 20260510042127 | 11 | 163 | 6.4 | 16.1 | 0.00 | 0.00 | 0.00 | 1 | 1008.1 |
| 20260510042051 | 11 | 163 | 8.0 | 16.1 | 0.00 | 0.00 | 0.00 | 1 | 1008.1 |
| 20260510041936 | 11 | 164 | 8.0 | 16.1 | 0.00 | 0.00 | 0.00 | 1 | 1008.0 |
| 20260510041830 | 11 | 125 | 8.0 | 16.1 | 0.00 | 0.00 | 0.00 | 1 | 1008.0 |
| 20260510041732 | 11 | 171 | 8.0 | 16.1 | 0.00 | 0.00 | 0.00 | 1 | 1007.9 |
| 20260510041626 | 11 | 143 | 9.7 | 16.1 | 0.00 | 0.00 | 0.00 | 1 | 1007.9 |
| 20260510041549 | 11 | 145 | 8.0 | 12.9 | 0.00 | 0.00 | 0.00 | 1 | 1007.9 |
| 20260510041437 | 11 | 146 | 4.8 | 11.3 | 0.00 | 0.00 | 0.00 | 1 | 1008.0 |
| 20260510041401 | 11 | 173 | 6.4 | 11.3 | 0.00 | 0.00 | 0.00 | 1 | 1008.0 |
| 20260510041316 | 11 | 144 | 8.0 | 12.9 | 0.00 | 0.00 | 0.00 | 1 | 1007.9 |
| 20260510041127 | 11 | 158 | 4.8 | 17.7 | 0.00 | 0.00 | 0.00 | 1 | 1007.9 |
| 20260510041042 | 11 | 192 | 3.2 | 17.7 | 0.00 | 0.00 | 0.00 | 1 | 1007.9 |
| 20260510040853 | 11 | 142 | 6.4 | 17.7 | 0.00 | 0.00 | 0.00 | 1 | 1007.9 |
| 20260510040735 | 11 | 157 | 4.8 | 17.7 | 0.00 | 0.00 | 0.00 | 1 | 1007.9 |
| 20260510040637 | 11 | 236 | 4.8 | 17.7 | 0.00 | 0.00 | 0.00 | 1 | 1007.9 |
| 20260510040600 | 11 | 138 | 6.4 | 17.7 | 0.00 | 0.00 | 0.00 | 1 | 1007.9 |
| 20260510040524 | 11 | 167 | 6.4 | 17.7 | 0.00 | 0.00 | 0.00 | 1 | 1007.9 |
| 20260510040332 | 11 | 169 | 9.7 | 17.7 | 0.00 | 0.00 | 0.00 | 1 | 1007.8 |
| 20260510040254 | 11 | 155 | 9.7 | 17.7 | 0.00 | 0.00 | 0.00 | 1 | 1007.8 |
| 20260510040138 | 11 | 150 | 8.0 | 17.7 | 0.00 | 0.00 | 0.00 | 1 | 1007.8 |
| 20260510040018 | 11 | 175 | 4.8 | 8.0 | 0.00 | 0.00 | 0.00 | 1 | 1007.8 |
| 20260510035830 | 12 | 200 | 3.2 | 8.0 | 0.00 | 0.00 | 0.00 | 1 | 1007.7 |
| 20260510035745 | 12 | 219 | 3.2 | 8.0 | 0.00 | 0.00 | 0.00 | 1 | 1007.7 |
| 20260510035616 | 12 | 185 | 4.8 | 8.0 | 0.00 | 0.00 | 0.00 | 1 | 1007.7 |
| 20260510035537 | 12 | 205 | 4.8 | 8.0 | 0.00 | 0.00 | 0.00 | 1 | 1007.7 |
| 20260510035410 | 12 | 199 | 4.8 | 9.7 | 0.00 | 0.00 | 0.00 | 1 | 1007.7 |
| 20260510035330 | 12 | 193 | 4.8 | 8.0 | 0.00 | 0.00 | 0.00 | 1 | 1007.8 |
| 20260510035141 | 12 | 152 | 4.8 | 8.0 | 0.00 | 0.00 | 0.00 | 1 | 1007.7 |
| 20260510035025 | 12 | 172 | 3.2 | 6.4 | 0.00 | 0.00 | 0.00 | 1 | 1007.7 |
| 20260510034949 | 12 | 150 | 3.2 | 6.4 | 0.00 | 0.00 | 0.00 | 1 | 1007.7 |
| 20260510034824 | 12 | 135 | 3.2 | 9.7 | 0.00 | 0.00 | 0.00 | 1 | 1007.7 |
| 20260510034737 | 12 | 219 | 1.6 | 9.7 | 0.00 | 0.00 | 0.00 | 1 | 1007.8 |
| 20260510034641 | 12 | 217 | 1.6 | 9.7 | 0.00 | 0.00 | 0.00 | 1 | 1007.8 |
| 20260510034608 | 12 | 194 | 3.2 | 9.7 | 0.00 | 0.00 | 0.00 | 1 | 1007.8 |
| 20260510034421 | 12 | 193 | 1.6 | 9.7 | 0.00 | 0.00 | 0.00 | 1 | 1007.8 |
| 20260510034344 | 12 | 183 | 1.6 | 9.7 | 0.00 | 0.00 | 0.00 | 1 | 1007.8 |
| 20260510034215 | 12 | 196 | 4.8 | 9.7 | 0.00 | 0.00 | 0.00 | 1 | 1007.8 |
| 20260510034110 | 12 | 227 | 4.8 | 9.7 | 0.00 | 0.00 | 0.00 | 1 | 1007.8 |
| 20260510033921 | 12 | 215 | 3.2 | 11.3 | 0.00 | 0.00 | 0.00 | 1 | 1007.8 |
| 20260510033843 | 12 | 228 | 4.8 | 17.7 | 0.00 | 0.00 | 0.00 | 1 | 1007.8 |
| 20260510033625 | 12 | 200 | 4.8 | 17.7 | 0.00 | 0.00 | 0.00 | 1 | 1007.8 |
| 20260510033549 | 12 | 220 | 4.8 | 17.7 | 0.00 | 0.00 | 0.00 | 1 | 1007.8 |
| 20260510033454 | 12 | 226 | 4.8 | 22.5 | 0.00 | 0.00 | 0.00 | 1 | 1007.8 |
| 20260510033417 | 12 | 216 | 4.8 | 22.5 | 0.00 | 0.00 | 0.00 | 1 | 1007.8 |
| 20260510033228 | 12 | 186 | 4.8 | 22.5 | 0.00 | 0.00 | 0.00 | 1 | 1007.9 |
| 20260510033125 | 12 | 138 | 8.0 | 22.5 | 0.00 | 0.00 | 0.00 | 1 | 1007.9 |
| 20260510033058 | 12 | 194 | 9.7 | 22.5 | 0.00 | 0.00 | 0.00 | 1 | 1007.9 |
| 20260510032924 | 12 | 194 | 9.7 | 22.5 | 0.00 | 0.00 | 0.00 | 1 | 1007.9 |
| 20260510032838 | 12 | 144 | 11.3 | 22.5 | 0.00 | 0.00 | 0.00 | 1 | 1007.9 |
| 20260510032741 | 12 | 158 | 11.3 | 22.5 | 0.00 | 0.00 | 0.00 | 1 | 1007.9 |
| 20260510032646 | 12 | 178 | 8.0 | 19.3 | 0.00 | 0.00 | 0.00 | 1 | 1007.9 |
| 20260510032547 | 12 | 134 | 8.0 | 19.3 | 0.00 | 0.00 | 0.00 | 1 | 1007.9 |
| 20260510032419 | 12 | 161 | 8.0 | 19.3 | 0.00 | 0.00 | 0.00 | 1 | 1008.0 |
| 20260510032336 | 12 | 161 | 8.0 | 19.3 | 0.00 | 0.00 | 0.00 | 1 | 1008.0 |
| 20260510032208 | 12 | 148 | 6.4 | 19.3 | 0.00 | 0.00 | 0.00 | 1 | 1008.1 |
| 20260510032130 | 12 | 188 | 8.0 | 19.3 | 0.00 | 0.00 | 0.00 | 1 | 1008.0 |
| 20260510032001 | 12 | 173 | 9.7 | 24.1 | 0.00 | 0.00 | 0.00 | 1 | 1008.0 |
| 20260510031837 | 12 | 162 | 8.0 | 24.1 | 0.00 | 0.00 | 0.00 | 1 | 1008.0 |
| 20260510031733 | 12 | 163 | 6.4 | 24.1 | 0.00 | 0.00 | 0.00 | 1 | 1008.0 |
| 20260510031654 | 12 | 159 | 4.8 | 24.1 | 0.00 | 0.00 | 0.00 | 1 | 1008.0 |
| 20260510031537 | 12 | 194 | 8.0 | 24.1 | 0.00 | 0.00 | 0.00 | 1 | 1008.0 |
| 20260510031432 | 12 | 153 | 9.7 | 24.1 | 0.00 | 0.00 | 0.00 | 1 | 1008.1 |
| 20260510031252 | 12 | 150 | 11.3 | 24.1 | 0.00 | 0.00 | 0.00 | 1 | 1008.0 |
| 20260510031035 | 12 | 172 | 9.7 | 14.5 | 0.00 | 0.00 | 0.00 | 1 | 1008.0 |
| 20260510030942 | 12 | 176 | 8.0 | 14.5 | 0.00 | 0.00 | 0.00 | 1 | 1007.8 |
| 20260510030825 | 12 | 144 | 9.7 | 14.5 | 0.00 | 0.00 | 0.00 | 1 | 1007.9 |
| 20260510030748 | 12 | 175 | 8.0 | 14.5 | 0.00 | 0.00 | 0.00 | 1 | 1007.9 |
| 20260510030711 | 12 | 180 | 6.4 | 12.9 | 0.00 | 0.00 | 0.00 | 1 | 1007.9 |
| 20260510030556 | 12 | 125 | 4.8 | 12.9 | 0.00 | 0.00 | 0.00 | 1 | 1007.9 |
| 20260510030519 | 12 | 195 | 6.4 | 12.9 | 0.00 | 0.00 | 0.00 | 1 | 1007.9 |
| 20260510030323 | 12 | 194 | 8.0 | 12.9 | 0.00 | 0.00 | 0.00 | 1 | 1007.8 |
| 20260510030224 | 12 | 215 | 8.0 | 12.9 | 0.00 | 0.00 | 0.00 | 1 | 1007.8 |
| 20260510030107 | 12 | 164 | 9.7 | 16.1 | 0.00 | 0.00 | 0.00 | 1 | 1007.9 |
| 20260510030033 | 12 | 156 | 9.7 | 14.5 | 0.00 | 0.00 | 0.00 | 1 | 1007.8 |
| 20260510025836 | 12 | 183 | 9.7 | 14.5 | 0.00 | 0.00 | 0.00 | 1 | 1007.9 |
| 20260510025739 | 12 | 158 | 6.4 | 14.5 | 0.00 | 0.00 | 0.00 | 1 | 1007.9 |
| 20260510025642 | 12 | 153 | 4.8 | 14.5 | 0.00 | 0.00 | 0.00 | 1 | 1007.9 |
| 20260510025605 | 12 | 165 | 4.8 | 14.5 | 0.00 | 0.00 | 0.00 | 1 | 1007.9 |
| 20260510025528 | 12 | 206 | 4.8 | 14.5 | 0.00 | 0.00 | 0.00 | 1 | 1007.9 |
| 20260510025400 | 12 | 147 | 4.8 | 14.5 | 0.00 | 0.00 | 0.00 | 1 | 1007.9 |
| 20260510025232 | 12 | 130 | 4.8 | 14.5 | 0.00 | 0.00 | 0.00 | 1 | 1008.0 |
| 20260510025156 | 12 | 184 | 4.8 | 14.5 | 0.00 | 0.00 | 0.00 | 1 | 1008.0 |
| 20260510025025 | 12 | 147 | 6.4 | 14.5 | 0.00 | 0.00 | 0.00 | 1 | 1008.0 |
| 20260510024941 | 12 | 158 | 8.0 | 12.9 | 0.00 | 0.00 | 0.00 | 1 | 1008.0 |
| 20260510024733 | 12 | 209 | 3.2 | 12.9 | 0.00 | 0.00 | 0.00 | 1 | 1008.1 |
| 20260510024636 | 12 | 192 | 1.6 | 12.9 | 0.00 | 0.00 | 0.00 | 1 | 1008.0 |
| 20260510024559 | 12 | 192 | 3.2 | 12.9 | 0.00 | 0.00 | 0.00 | 1 | 1008.0 |
| 20260510024522 | 12 | 192 | 4.8 | 12.9 | 0.00 | 0.00 | 0.00 | 1 | 1007.9 |
| 20260510024325 | 12 | 219 | 4.8 | 14.5 | 0.00 | 0.00 | 0.00 | 1 | 1007.9 |
| 20260510024248 | 12 | 213 | 4.8 | 14.5 | 0.00 | 0.00 | 0.00 | 1 | 1007.9 |
| 20260510024132 | 12 | 144 | 4.8 | 14.5 | 0.00 | 0.00 | 0.00 | 1 | 1007.9 |
| 20260510024057 | 12 | 188 | 4.8 | 14.5 | 0.00 | 0.00 | 0.00 | 1 | 1007.9 |
| 20260510024000 | 12 | 194 | 4.8 | 14.5 | 0.00 | 0.00 | 0.00 | 1 | 1007.9 |
| 20260510023904 | 12 | 186 | 6.4 | 17.7 | 0.00 | 0.00 | 0.00 | 1 | 1007.9 |
| 20260510023825 | 12 | 192 | 8.0 | 17.7 | 0.00 | 0.00 | 0.00 | 1 | 1008.0 |
| 20260510023629 | 12 | 151 | 6.4 | 17.7 | 0.00 | 0.00 | 0.00 | 1 | 1008.0 |
| 20260510023531 | 12 | 123 | 8.0 | 17.7 | 0.00 | 0.00 | 0.00 | 1 | 1008.0 |
| 20260510023435 | 12 | 175 | 6.4 | 17.7 | 0.00 | 0.00 | 0.00 | 1 | 1007.9 |
| 20260510023357 | 12 | 194 | 4.8 | 17.7 | 0.00 | 0.00 | 0.00 | 1 | 1008.0 |
| 20260510023259 | 12 | 206 | 6.4 | 17.7 | 0.00 | 0.00 | 0.00 | 1 | 1008.0 |
| 20260510023202 | 12 | 107 | 8.0 | 17.7 | 0.00 | 0.00 | 0.00 | 1 | 1007.9 |
| 20260510023104 | 12 | 169 | 6.4 | 17.7 | 0.00 | 0.00 | 0.00 | 1 | 1007.9 |
| 20260510023029 | 12 | 198 | 6.4 | 17.7 | 0.00 | 0.00 | 0.00 | 1 | 1007.8 |
| 20260510022831 | 12 | 165 | 8.0 | 17.7 | 0.00 | 0.00 | 0.00 | 1 | 1007.8 |
| 20260510022754 | 12 | 140 | 6.4 | 17.7 | 0.00 | 0.00 | 0.00 | 1 | 1007.8 |
| 20260510022639 | 12 | 139 | 3.2 | 17.7 | 0.00 | 0.00 | 0.00 | 1 | 1007.9 |
| 20260510022601 | 12 | 131 | 4.8 | 17.7 | 0.00 | 0.00 | 0.00 | 1 | 1007.9 |
| 20260510022432 | 12 | 149 | 11.3 | 17.7 | 0.00 | 0.00 | 0.00 | 1 | 1007.9 |
| 20260510022328 | 12 | 133 | 9.7 | 17.7 | 0.00 | 0.00 | 0.00 | 1 | 1007.9 |
| 20260510022159 | 12 | 150 | 6.4 | 17.7 | 0.00 | 0.00 | 0.00 | 1 | 1008.0 |
| 20260510022102 | 12 | 138 | 8.0 | 17.7 | 0.00 | 0.00 | 0.00 | 1 | 1008.0 |
| 20260510021925 | 12 | 167 | 8.0 | 17.7 | 0.00 | 0.00 | 0.00 | 1 | 1008.0 |
| 20260510021852 | 12 | 178 | 8.0 | 17.7 | 0.00 | 0.00 | 0.00 | 1 | 1008.1 |
| 20260510021635 | 12 | 119 | 8.0 | 17.7 | 0.00 | 0.00 | 0.00 | 1 | 1008.1 |
| 20260510021539 | 12 | 146 | 9.7 | 17.7 | 0.00 | 0.00 | 0.00 | 1 | 1008.1 |
| 20260510021441 | 12 | 151 | 11.3 | 17.7 | 0.00 | 0.00 | 0.00 | 1 | 1008.2 |
| 20260510021344 | 12 | 176 | 8.0 | 14.5 | 0.00 | 0.00 | 0.00 | 1 | 1008.2 |
| 20260510021238 | 12 | 171 | 6.4 | 11.3 | 0.00 | 0.00 | 0.00 | 1 | 1008.2 |
| 20260510021201 | 12 | 169 | 6.4 | 16.1 | 0.00 | 0.00 | 0.00 | 1 | 1008.2 |
| 20260510021105 | 12 | 118 | 4.8 | 16.1 | 0.00 | 0.00 | 0.00 | 1 | 1008.2 |
| 20260510021028 | 12 | 167 | 4.8 | 16.1 | 0.00 | 0.00 | 0.00 | 1 | 1008.1 |
| 20260510020836 | 12 | 157 | 3.2 | 16.1 | 0.00 | 0.00 | 0.00 | 1 | 1008.1 |
| 20260510020738 | 11 | 175 | 3.2 | 16.1 | 0.00 | 0.00 | 0.00 | 1 | 1008.1 |
| 20260510020624 | 11 | 125 | 4.8 | 16.1 | 0.00 | 0.00 | 0.00 | 1 | 1008.2 |
| 20260510020547 | 11 | 161 | 8.0 | 16.1 | 0.00 | 0.00 | 0.00 | 1 | 1008.2 |
| 20260510020330 | 11 | 167 | 4.8 | 12.9 | 0.00 | 0.00 | 0.00 | 1 | 1008.2 |
| 20260510020253 | 11 | 142 | 6.4 | 12.9 | 0.00 | 0.00 | 0.00 | 1 | 1008.2 |
| 20260510020138 | 11 | 148 | 8.0 | 12.9 | 0.00 | 0.00 | 0.00 | 1 | 1008.2 |
| 20260510020044 | 11 | 158 | 6.4 | 12.9 | 0.00 | 0.00 | 0.00 | 1 | 1008.2 |
| 20260510015939 | 11 | 135 | 4.8 | 12.9 | 0.00 | 0.00 | 0.00 | 1 | 1008.2 |
| 20260510015841 | 11 | 160 | 6.4 | 12.9 | 0.00 | 0.00 | 0.00 | 1 | 1008.3 |
| 20260510015756 | 11 | 146 | 8.0 | 12.9 | 0.00 | 0.00 | 0.00 | 1 | 1008.3 |
| 20260510015606 | 11 | 146 | 8.0 | 12.9 | 0.00 | 0.00 | 0.00 | 1 | 1008.3 |
| 20260510015530 | 11 | 136 | 6.4 | 9.7 | 0.00 | 0.00 | 0.00 | 1 | 1008.3 |
| 20260510015332 | 11 | 140 | 3.2 | 6.4 | 0.00 | 0.00 | 0.00 | 1 | 1008.3 |
| 20260510015255 | 11 | 135 | 3.2 | 6.4 | 0.00 | 0.00 | 0.00 | 1 | 1008.3 |
| 20260510015140 | 11 | 136 | 3.2 | 6.4 | 0.00 | 0.00 | 0.00 | 1 | 1008.3 |
| 20260510015049 | 11 | 136 | 3.2 | 6.4 | 0.00 | 0.00 | 0.00 | 1 | 1008.3 |
| 20260510014941 | 11 | 137 | 0.0 | 4.8 | 0.00 | 0.00 | 0.00 | 1 | 1008.3 |
| 20260510014904 | 11 | 153 | 0.0 | 4.8 | 0.00 | 0.00 | 0.00 | 1 | 1008.3 |
| 20260510014808 | 10 | 153 | 0.0 | 4.8 | 0.00 | 0.00 | 0.00 | 1 | 1008.3 |
| 20260510014730 | 10 | 153 | 0.0 | 4.8 | 0.00 | 0.00 | 0.00 | 1 | 1008.4 |
| 20260510014523 | 10 | 153 | 3.2 | 4.8 | 0.00 | 0.00 | 0.00 | 1 | 1008.4 |
| 20260510014425 | 10 | 129 | 3.2 | 4.8 | 0.00 | 0.00 | 0.00 | 1 | 1008.4 |
| 20260510014340 | 10 | 221 | 1.6 | 4.8 | 0.00 | 0.00 | 0.00 | 1 | 1008.4 |
| 20260510014241 | 10 | 221 | 1.6 | 4.8 | 0.00 | 0.00 | 0.00 | 1 | 1008.4 |
| 20260510014143 | 10 | 164 | 1.6 | 4.8 | 0.00 | 0.00 | 0.00 | 1 | 1008.4 |
| 20260510014104 | 10 | 164 | 3.2 | 4.8 | 0.00 | 0.00 | 0.00 | 1 | 1008.4 |
| 20260510014008 | 10 | 184 | 3.2 | 4.8 | 0.00 | 0.00 | 0.00 | 1 | 1008.4 |
| 20260510013930 | 10 | 185 | 3.2 | 4.8 | 0.00 | 0.00 | 0.00 | 1 | 1008.4 |
| 20260510013750 | 10 | 200 | 3.2 | 4.8 | 0.00 | 0.00 | 0.00 | 1 | 1008.4 |
| 20260510013652 | 10 | 133 | 3.2 | 4.8 | 0.00 | 0.00 | 0.00 | 1 | 1008.3 |
| 20260510013534 | 10 | 126 | 3.2 | 4.8 | 0.00 | 0.00 | 0.00 | 1 | 1008.3 |
| 20260510013458 | 10 | 140 | 1.6 | 4.8 | 0.00 | 0.00 | 0.00 | 1 | 1008.3 |
| 20260510013420 | 10 | 140 | 1.6 | 4.8 | 0.00 | 0.00 | 0.00 | 1 | 1008.4 |
| 20260510013222 | 10 | 211 | 0.0 | 1.6 | 0.00 | 0.00 | 0.00 | 1 | 1008.4 |
| 20260510013146 | 10 | 211 | 0.0 | 1.6 | 0.00 | 0.00 | 0.00 | 1 | 1008.4 |
| 20260510013034 | 10 | 211 | 0.0 | 1.6 | 0.00 | 0.00 | 0.00 | 1 | 1008.4 |
| 20260510012958 | 10 | 211 | 0.0 | 1.6 | 0.00 | 0.00 | 0.00 | 1 | 1008.4 |
| 20260510012915 | 10 | 211 | 0.0 | 1.6 | 0.00 | 0.00 | 0.00 | 1 | 1008.4 |
| 20260510012744 | 10 | 211 | 0.0 | 0.0 | 0.00 | 0.00 | 0.00 | 1 | 1008.5 |
| 20260510012647 | 10 | 211 | 0.0 | 0.0 | 0.00 | 0.00 | 0.00 | 1 | 1008.5 |
| 20260510012530 | 10 | 211 | 0.0 | 0.0 | 0.00 | 0.00 | 0.00 | 1 | 1008.5 |
| 20260510012435 | 10 | 211 | 0.0 | 0.0 | 0.00 | 0.00 | 0.00 | 1 | 1008.5 |
| 20260510012337 | 10 | 211 | 0.0 | 0.0 | 0.00 | 0.00 | 0.00 | 1 | 1008.6 |
| 20260510012301 | 10 | 211 | 0.0 | 0.0 | 0.00 | 0.00 | 0.00 | 1 | 1008.6 |
| 20260510012209 | 10 | 211 | 0.0 | 0.0 | 0.00 | 0.00 | 0.00 | 1 | 1008.6 |
| 20260510012133 | 10 | 211 | 0.0 | 0.0 | 0.00 | 0.00 | 0.00 | 1 | 1008.6 |
| 20260510011936 | 10 | 211 | 0.0 | 0.0 | 0.00 | 0.00 | 0.00 | 1 | 1008.5 |
| 20260510011839 | 10 | 211 | 0.0 | 0.0 | 0.00 | 0.00 | 0.00 | 1 | 1008.6 |
| 20260510011726 | 10 | 211 | 0.0 | 0.0 | 0.00 | 0.00 | 0.00 | 1 | 1008.6 |
| 20260510011647 | 10 | 211 | 0.0 | 0.0 | 0.00 | 0.00 | 0.00 | 1 | 1008.6 |
| 20260510011522 | 10 | 211 | 0.0 | 0.0 | 0.00 | 0.00 | 0.00 | 1 | 1008.5 |
| 20260510011427 | 10 | 211 | 0.0 | 0.0 | 0.00 | 0.00 | 0.00 | 1 | 1008.5 |
| 20260510011332 | 10 | 211 | 0.0 | 1.6 | 0.00 | 0.00 | 0.00 | 1 | 1008.5 |
| 20260510011256 | 10 | 211 | 0.0 | 1.6 | 0.00 | 0.00 | 0.00 | 1 | 1008.5 |
| 20260510011138 | 10 | 211 | 0.0 | 1.6 | 0.00 | 0.00 | 0.00 | 1 | 1008.5 |
| 20260510011102 | 10 | 211 | 0.0 | 1.6 | 0.00 | 0.00 | 0.00 | 1 | 1008.5 |
| 20260510011016 | 10 | 211 | 0.0 | 1.6 | 0.00 | 0.00 | 0.00 | 1 | 1008.6 |
| 20260510010828 | 10 | 211 | 0.0 | 1.6 | 0.00 | 0.00 | 0.00 | 1 | 1008.6 |
| 20260510010741 | 10 | 211 | 0.0 | 1.6 | 0.00 | 0.00 | 0.00 | 1 | 1008.6 |
| 20260510010645 | 10 | 211 | 0.0 | 1.6 | 0.00 | 0.00 | 0.00 | 1 | 1008.6 |
| 20260510010549 | 10 | 211 | 0.0 | 1.6 | 0.00 | 0.00 | 0.00 | 1 | 1008.6 |
| 20260510010434 | 10 | 211 | 0.0 | 1.6 | 0.00 | 0.00 | 0.00 | 1 | 1008.6 |
| 20260510010339 | 10 | 211 | 0.0 | 1.6 | 0.00 | 0.00 | 0.00 | 1 | 1008.6 |
| 20260510010240 | 10 | 211 | 0.0 | 1.6 | 0.00 | 0.00 | 0.00 | 1 | 1008.6 |
| 20260510010156 | 10 | 211 | 0.0 | 1.6 | 0.00 | 0.00 | 0.00 | 1 | 1008.6 |
| 20260510010119 | 10 | 211 | 0.0 | 1.6 | 0.00 | 0.00 | 0.00 | 1 | 1008.6 |
| 20260510010041 | 10 | 211 | 0.0 | 1.6 | 0.00 | 0.00 | 0.00 | 1 | 1008.5 |
| 20260510005904 | 10 | 211 | 0.0 | 1.6 | 0.00 | 0.00 | 0.00 | 1 | 1008.6 |
| 20260510005825 | 10 | 211 | 0.0 | 1.6 | 0.00 | 0.00 | 0.00 | 1 | 1008.5 |
| 20260510005637 | 10 | 211 | 0.0 | 1.6 | 0.00 | 0.00 | 0.00 | 1 | 1008.6 |
| 20260510005535 | 10 | 211 | 0.0 | 1.6 | 0.00 | 0.00 | 0.00 | 1 | 1008.6 |
| 20260510005459 | 10 | 211 | 0.0 | 1.6 | 0.00 | 0.00 | 0.00 | 1 | 1008.6 |
| 20260510005401 | 10 | 211 | 0.0 | 0.0 | 0.00 | 0.00 | 0.00 | 1 | 1008.5 |
| 20260510005306 | 10 | 211 | 0.0 | 0.0 | 0.00 | 0.00 | 0.00 | 1 | 1008.5 |
| 20260510005226 | 10 | 211 | 0.0 | 0.0 | 0.00 | 0.00 | 0.00 | 1 | 1008.5 |
| 20260510005028 | 10 | 211 | 0.0 | 0.0 | 0.00 | 0.00 | 0.00 | 1 | 1008.6 |
| 20260510004951 | 10 | 211 | 0.0 | 0.0 | 0.00 | 0.00 | 0.00 | 1 | 1008.6 |
| 20260510004836 | 10 | 211 | 0.0 | 0.0 | 0.00 | 0.00 | 0.00 | 1 | 1008.6 |
| 20260510004737 | 10 | 211 | 0.0 | 0.0 | 0.00 | 0.00 | 0.00 | 1 | 1008.7 |
| 20260510004518 | 10 | 211 | 0.0 | 0.0 | 0.00 | 0.00 | 0.00 | 1 | 1008.8 |
| 20260510004334 | 10 | 211 | 0.0 | 0.0 | 0.00 | 0.00 | 0.00 | 1 | 1008.8 |
| 20260510004236 | 10 | 211 | 0.0 | 0.0 | 0.00 | 0.00 | 0.00 | 1 | 1008.8 |
| 20260510004140 | 10 | 211 | 0.0 | 0.0 | 0.00 | 0.00 | 0.00 | 1 | 1008.8 |
| 20260510004102 | 10 | 211 | 0.0 | 0.0 | 0.00 | 0.00 | 0.00 | 1 | 1008.8 |
| 20260510003933 | 10 | 211 | 0.0 | 0.0 | 0.00 | 0.00 | 0.00 | 1 | 1008.7 |
| 20260510003816 | 10 | 211 | 0.0 | 0.0 | 0.00 | 0.00 | 0.00 | 1 | 1008.7 |
| 20260510003738 | 10 | 211 | 0.0 | 0.0 | 0.00 | 0.00 | 0.00 | 1 | 1008.6 |
| 20260510003610 | 10 | 211 | 0.0 | 0.0 | 0.00 | 0.00 | 0.00 | 1 | 1008.6 |
| 20260510003526 | 10 | 211 | 0.0 | 0.0 | 0.00 | 0.00 | 0.00 | 1 | 1008.6 |
| 20260510003340 | 10 | 211 | 0.0 | 0.0 | 0.00 | 0.00 | 0.00 | 1 | 1008.5 |
| 20260510003304 | 10 | 211 | 0.0 | 0.0 | 0.00 | 0.00 | 0.00 | 1 | 1008.5 |
| 20260510003218 | 10 | 211 | 0.0 | 0.0 | 0.00 | 0.00 | 0.00 | 1 | 1008.6 |
| 20260510003030 | 10 | 211 | 0.0 | 0.0 | 0.00 | 0.00 | 0.00 | 1 | 1008.6 |
| 20260510002925 | 10 | 211 | 0.0 | 0.0 | 0.00 | 0.00 | 0.00 | 1 | 1008.6 |
| 20260510002849 | 10 | 211 | 0.0 | 0.0 | 0.00 | 0.00 | 0.00 | 1 | 1008.6 |
| 20260510002723 | 10 | 211 | 0.0 | 0.0 | 0.00 | 0.00 | 0.00 | 1 | 1008.6 |
| 20260510002525 | 10 | 211 | 0.0 | 0.0 | 0.00 | 0.00 | 0.00 | 1 | 1008.6 |
| 20260510002433 | 10 | 211 | 0.0 | 0.0 | 0.00 | 0.00 | 0.00 | 1 | 1008.6 |
| 20260510002337 | 10 | 211 | 0.0 | 0.0 | 0.00 | 0.00 | 0.00 | 1 | 1008.6 |
| 20260510002301 | 10 | 211 | 0.0 | 0.0 | 0.00 | 0.00 | 0.00 | 1 | 1008.6 |
| 20260510002223 | 10 | 211 | 0.0 | 0.0 | 0.00 | 0.00 | 0.00 | 1 | 1008.6 |
| 20260510002028 | 10 | 211 | 0.0 | 0.0 | 0.00 | 0.00 | 0.00 | 1 | 1008.7 |
| 20260510001932 | 10 | 211 | 0.0 | 0.0 | 0.00 | 0.00 | 0.00 | 1 | 1008.7 |
| 20260510001835 | 10 | 211 | 0.0 | 0.0 | 0.00 | 0.00 | 0.00 | 1 | 1008.7 |
| 20260510001758 | 10 | 211 | 0.0 | 0.0 | 0.00 | 0.00 | 0.00 | 1 | 1008.7 |
| 20260510001720 | 10 | 211 | 0.0 | 0.0 | 0.00 | 0.00 | 0.00 | 1 | 1008.7 |
| 20260510001604 | 10 | 211 | 0.0 | 0.0 | 0.00 | 0.00 | 0.00 | 1 | 1008.7 |
| 20260510001526 | 10 | 211 | 0.0 | 0.0 | 0.00 | 0.00 | 0.00 | 1 | 1008.7 |
| 20260510001336 | 10 | 211 | 0.0 | 0.0 | 0.00 | 0.00 | 0.00 | 1 | 1008.7 |
| 20260510001238 | 10 | 211 | 0.0 | 0.0 | 0.00 | 0.00 | 0.00 | 1 | 1008.7 |
| 20260510001122 | 10 | 211 | 0.0 | 0.0 | 0.00 | 0.00 | 0.00 | 1 | 1008.7 |
| 20260510001046 | 10 | 211 | 0.0 | 0.0 | 0.00 | 0.00 | 0.00 | 1 | 1008.7 |
| 20260510000942 | 10 | 211 | 0.0 | 0.0 | 0.00 | 0.00 | 0.00 | 1 | 1008.6 |
| 20260510000827 | 10 | 211 | 0.0 | 0.0 | 0.00 | 0.00 | 0.00 | 1 | 1008.6 |
| 20260510000726 | 10 | 211 | 0.0 | 0.0 | 0.00 | 0.00 | 0.00 | 1 | 1008.6 |
| 20260510000654 | 10 | 211 | 0.0 | 0.0 | 0.00 | 0.00 | 0.00 | 1 | 1008.6 |
| 20260510000538 | 10 | 211 | 0.0 | 0.0 | 0.00 | 0.00 | 0.00 | 1 | 1008.5 |
| 20260510000502 | 10 | 211 | 0.0 | 0.0 | 0.00 | 0.00 | 0.00 | 1 | 1008.5 |
| 20260510000418 | 10 | 211 | 0.0 | 0.0 | 0.00 | 0.00 | 0.00 | 1 | 1008.5 |
| 20260510000229 | 10 | 211 | 0.0 | 0.0 | 0.00 | 0.00 | 0.00 | 1 | 1008.5 |
| 20260510000123 | 11 | 211 | 0.0 | 0.0 | 0.00 | 0.00 | 0.00 | 1 | 1008.5 |
| 20260510000047 | 11 | 211 | 0.0 | 0.0 | 0.00 | 0.00 | 0.00 | 1 | 1008.5 |
| 20260510000004 | 11 | 211 | 0.0 | 0.0 | 0.00 | 0.00 | 0.00 | 1 | 1008.5 |
| 20260509235926 | 11 | 211 | 0.0 | 0.0 | 0.00 | 0.00 | 0.00 | 1 | 1008.5 |
| 20260509235740 | 11 | 211 | 0.0 | 0.0 | 0.00 | 0.00 | 0.00 | 1 | 1008.5 |
| 20260509235616 | 11 | 211 | 0.0 | 0.0 | 0.00 | 0.00 | 0.00 | 1 | 1008.5 |
| 20260509235529 | 11 | 211 | 0.0 | 0.0 | 0.00 | 0.00 | 0.00 | 1 | 1008.5 |
| 20260509235450 | 11 | 211 | 0.0 | 0.0 | 0.00 | 0.00 | 0.00 | 1 | 1008.5 |
| 20260509235353 | 11 | 211 | 0.0 | 1.6 | 0.00 | 0.00 | 0.00 | 1 | 1008.5 |
| 20260509235238 | 11 | 211 | 0.0 | 1.6 | 0.00 | 0.00 | 0.00 | 1 | 1008.5 |
| 20260509235200 | 11 | 211 | 0.0 | 3.2 | 0.00 | 0.00 | 0.00 | 1 | 1008.5 |
| 20260509235022 | 11 | 211 | 0.0 | 3.2 | 0.00 | 0.00 | 0.00 | 1 | 1008.5 |
| 20260509234956 | 11 | 211 | 0.0 | 3.2 | 0.00 | 0.00 | 0.00 | 1 | 1008.5 |
| 20260509234916 | 11 | 211 | 0.0 | 3.2 | 0.00 | 0.00 | 0.00 | 1 | 1008.5 |
| 20260509234726 | 11 | 211 | 0.0 | 3.2 | 0.00 | 0.00 | 0.00 | 1 | 1008.5 |
| 20260509234643 | 11 | 211 | 0.0 | 3.2 | 0.00 | 0.00 | 0.00 | 1 | 1008.5 |
| 20260509234501 | 11 | 211 | 0.0 | 3.2 | 0.00 | 0.00 | 0.00 | 1 | 1008.5 |
| 20260509234345 | 11 | 211 | 0.0 | 3.2 | 0.00 | 0.00 | 0.00 | 1 | 1008.5 |
| 20260509234238 | 11 | 211 | 0.0 | 3.2 | 0.00 | 0.00 | 0.00 | 1 | 1008.4 |
| 20260509234202 | 11 | 211 | 0.0 | 3.2 | 0.00 | 0.00 | 0.00 | 1 | 1008.4 |
| 20260509234106 | 11 | 211 | 0.0 | 3.2 | 0.00 | 0.00 | 0.00 | 1 | 1008.4 |
| 20260509234028 | 11 | 212 | 0.0 | 3.2 | 0.00 | 0.00 | 0.00 | 1 | 1008.4 |
| 20260509233837 | 11 | 140 | 0.0 | 3.2 | 0.00 | 0.00 | 0.00 | 1 | 1008.4 |
| 20260509233739 | 11 | 140 | 1.6 | 3.2 | 0.00 | 0.00 | 0.00 | 1 | 1008.5 |
| 20260509233623 | 11 | 140 | 1.6 | 3.2 | 0.00 | 0.00 | 0.00 | 1 | 1008.4 |
| 20260509233547 | 11 | 148 | 0.0 | 3.2 | 0.00 | 0.00 | 0.00 | 1 | 1008.4 |
| 20260509233452 | 11 | 148 | 1.6 | 3.2 | 0.00 | 0.00 | 0.00 | 1 | 1008.4 |
| 20260509233353 | 11 | 148 | 1.6 | 3.2 | 0.00 | 0.00 | 0.00 | 1 | 1008.5 |
| 20260509233136 | 11 | 175 | 1.6 | 4.8 | 0.00 | 0.00 | 0.00 | 1 | 1008.4 |
| 20260509233039 | 11 | 173 | 1.6 | 4.8 | 0.00 | 0.00 | 0.00 | 1 | 1008.5 |
| 20260509232928 | 11 | 205 | 0.0 | 4.8 | 0.00 | 0.00 | 0.00 | 1 | 1008.4 |
| 20260509232850 | 11 | 205 | 0.0 | 4.8 | 0.00 | 0.00 | 0.00 | 1 | 1008.4 |
| 20260509232720 | 11 | 205 | 0.0 | 6.4 | 0.00 | 0.00 | 0.00 | 1 | 1008.5 |
| 20260509232634 | 11 | 205 | 0.0 | 6.4 | 0.00 | 0.00 | 0.00 | 1 | 1008.5 |
| 20260509232503 | 11 | 205 | 1.6 | 6.4 | 0.00 | 0.00 | 0.00 | 1 | 1008.5 |
| 20260509232404 | 11 | 205 | 3.2 | 6.4 | 0.00 | 0.00 | 0.00 | 1 | 1008.5 |
| 20260509232318 | 11 | 205 | 3.2 | 6.4 | 0.00 | 0.00 | 0.00 | 1 | 1008.5 |
| 20260509232130 | 11 | 206 | 3.2 | 6.4 | 0.00 | 0.00 | 0.00 | 1 | 1008.5 |
| 20260509232047 | 11 | 201 | 3.2 | 6.4 | 0.00 | 0.00 | 0.00 | 1 | 1008.5 |
| 20260509231835 | 11 | 215 | 3.2 | 6.4 | 0.00 | 0.00 | 0.00 | 1 | 1008.4 |
| 20260509231753 | 11 | 230 | 1.6 | 6.4 | 0.00 | 0.00 | 0.00 | 1 | 1008.4 |
| 20260509231720 | 11 | 223 | 1.6 | 6.4 | 0.00 | 0.00 | 0.00 | 1 | 1008.4 |
| 20260509231514 | 11 | 202 | 3.2 | 8.0 | 0.00 | 0.00 | 0.00 | 1 | 1008.4 |
| 20260509231428 | 11 | 210 | 0.0 | 8.0 | 0.00 | 0.00 | 0.00 | 1 | 1008.4 |
| 20260509231331 | 11 | 225 | 0.0 | 8.0 | 0.00 | 0.00 | 0.00 | 1 | 1008.3 |
| 20260509231254 | 11 | 225 | 1.6 | 8.0 | 0.00 | 0.00 | 0.00 | 1 | 1008.3 |
| 20260509231216 | 11 | 225 | 1.6 | 8.0 | 0.00 | 0.00 | 0.00 | 1 | 1008.4 |
| 20260509231040 | 11 | 250 | 3.2 | 8.0 | 0.00 | 0.00 | 0.00 | 1 | 1008.4 |
| 20260509230942 | 11 | 236 | 4.8 | 8.0 | 0.00 | 0.00 | 0.00 | 1 | 1008.3 |
| 20260509230831 | 11 | 225 | 4.8 | 8.0 | 0.00 | 0.00 | 0.00 | 1 | 1008.3 |
| 20260509230754 | 11 | 257 | 4.8 | 9.7 | 0.00 | 0.00 | 0.00 | 1 | 1008.3 |
| 20260509230617 | 11 | 190 | 4.8 | 8.0 | 0.00 | 0.00 | 0.00 | 1 | 1008.3 |
| 20260509230541 | 11 | 169 | 4.8 | 8.0 | 0.00 | 0.00 | 0.00 | 1 | 1008.3 |
| 20260509230413 | 11 | 192 | 4.8 | 9.7 | 0.00 | 0.00 | 0.00 | 1 | 1008.3 |
| 20260509230336 | 10 | 171 | 3.2 | 9.7 | 0.00 | 0.00 | 0.00 | 1 | 1008.3 |
| 20260509230139 | 10 | 176 | 4.8 | 9.7 | 0.00 | 0.00 | 0.00 | 1 | 1008.4 |
| 20260509230041 | 10 | 182 | 3.2 | 9.7 | 0.00 | 0.00 | 0.00 | 1 | 1008.4 |
| 20260509225924 | 10 | 167 | 4.8 | 11.3 | 0.00 | 0.00 | 0.00 | 1 | 1008.4 |
| 20260509225848 | 10 | 134 | 4.8 | 11.3 | 0.00 | 0.00 | 0.00 | 1 | 1008.4 |
| 20260509225728 | 10 | 166 | 6.4 | 11.3 | 0.00 | 0.00 | 0.00 | 1 | 1008.4 |
| 20260509225634 | 10 | 123 | 4.8 | 11.3 | 0.00 | 0.00 | 0.00 | 1 | 1008.4 |
| 20260509225534 | 10 | 190 | 4.8 | 11.3 | 0.00 | 0.00 | 0.00 | 1 | 1008.5 |
| 20260509225459 | 10 | 160 | 4.8 | 11.3 | 0.00 | 0.00 | 0.00 | 1 | 1008.5 |
| 20260509225341 | 10 | 195 | 4.8 | 11.3 | 0.00 | 0.00 | 0.00 | 1 | 1008.5 |
| 20260509225306 | 10 | 185 | 6.4 | 11.3 | 0.00 | 0.00 | 0.00 | 1 | 1008.5 |
| 20260509225137 | 10 | 212 | 8.0 | 11.3 | 0.00 | 0.00 | 0.00 | 1 | 1008.4 |
| 20260509225100 | 10 | 207 | 8.0 | 11.3 | 0.00 | 0.00 | 0.00 | 1 | 1008.4 |
| 20260509225005 | 10 | 196 | 6.4 | 9.7 | 0.00 | 0.00 | 0.00 | 1 | 1008.5 |
| 20260509224931 | 10 | 178 | 6.4 | 9.7 | 0.00 | 0.00 | 0.00 | 1 | 1008.5 |
| 20260509224735 | 10 | 178 | 3.2 | 8.0 | 0.00 | 0.00 | 0.00 | 1 | 1008.5 |
| 20260509224638 | 10 | 158 | 1.6 | 8.0 | 0.00 | 0.00 | 0.00 | 1 | 1008.5 |
| 20260509224533 | 10 | 158 | 1.6 | 8.0 | 0.00 | 0.00 | 0.00 | 1 | 1008.5 |
| 20260509224457 | 10 | 158 | 1.6 | 8.0 | 0.00 | 0.00 | 0.00 | 1 | 1008.5 |
| 20260509224340 | 10 | 158 | 1.6 | 8.0 | 0.00 | 0.00 | 0.00 | 1 | 1008.5 |
| 20260509224302 | 10 | 158 | 1.6 | 8.0 | 0.00 | 0.00 | 0.00 | 1 | 1008.5 |
| 20260509224216 | 10 | 158 | 1.6 | 8.0 | 0.00 | 0.00 | 0.00 | 1 | 1008.5 |
| 20260509224040 | 10 | 147 | 4.8 | 8.0 | 0.00 | 0.00 | 0.00 | 1 | 1008.6 |
| 20260509224005 | 10 | 184 | 4.8 | 8.0 | 0.00 | 0.00 | 0.00 | 1 | 1008.6 |
| 20260509223918 | 10 | 189 | 4.8 | 8.0 | 0.00 | 0.00 | 0.00 | 1 | 1008.6 |
| 20260509223730 | 10 | 158 | 4.8 | 11.3 | 0.00 | 0.00 | 0.00 | 1 | 1008.6 |
| 20260509223624 | 10 | 202 | 6.4 | 11.3 | 0.00 | 0.00 | 0.00 | 1 | 1008.6 |
| 20260509223548 | 10 | 180 | 6.4 | 11.3 | 0.00 | 0.00 | 0.00 | 1 | 1008.6 |
| 20260509223423 | 10 | 178 | 4.8 | 11.3 | 0.00 | 0.00 | 0.00 | 1 | 1008.6 |
| 20260509223339 | 10 | 159 | 3.2 | 11.3 | 0.00 | 0.00 | 0.00 | 1 | 1008.7 |
| 20260509223247 | 10 | 153 | 1.6 | 11.3 | 0.00 | 0.00 | 0.00 | 1 | 1008.7 |
| 20260509223129 | 10 | 186 | 4.8 | 11.3 | 0.00 | 0.00 | 0.00 | 1 | 1008.8 |
| 20260509223054 | 10 | 173 | 4.8 | 11.3 | 0.00 | 0.00 | 0.00 | 1 | 1008.8 |
| 20260509223009 | 10 | 117 | 4.8 | 9.7 | 0.00 | 0.00 | 0.00 | 1 | 1008.8 |
| 20260509222746 | 10 | 196 | 4.8 | 8.0 | 0.00 | 0.00 | 0.00 | 1 | 1008.8 |
| 20260509222649 | 10 | 191 | 4.8 | 8.0 | 0.00 | 0.00 | 0.00 | 1 | 1008.8 |
| 20260509222533 | 10 | 190 | 4.8 | 9.7 | 0.00 | 0.00 | 0.00 | 1 | 1008.8 |
| 20260509222456 | 10 | 151 | 4.8 | 8.0 | 0.00 | 0.00 | 0.00 | 1 | 1008.8 |
| 20260509222414 | 10 | 148 | 4.8 | 8.0 | 0.00 | 0.00 | 0.00 | 1 | 1008.8 |
| 20260509222244 | 10 | 174 | 4.8 | 8.0 | 0.00 | 0.00 | 0.00 | 1 | 1008.8 |
| 20260509222146 | 10 | 195 | 4.8 | 8.0 | 0.00 | 0.00 | 0.00 | 1 | 1008.8 |
| 20260509222113 | 10 | 175 | 4.8 | 8.0 | 0.00 | 0.00 | 0.00 | 1 | 1008.9 |
| 20260509221957 | 10 | 193 | 4.8 | 8.0 | 0.00 | 0.00 | 0.00 | 1 | 1008.9 |
| 20260509221839 | 10 | 194 | 4.8 | 8.0 | 0.00 | 0.00 | 0.00 | 1 | 1008.8 |
| 20260509221742 | 10 | 167 | 4.8 | 8.0 | 0.00 | 0.00 | 0.00 | 1 | 1008.9 |
| 20260509221704 | 10 | 184 | 3.2 | 11.3 | 0.00 | 0.00 | 0.00 | 1 | 1008.9 |
| 20260509221626 | 10 | 153 | 4.8 | 11.3 | 0.00 | 0.00 | 0.00 | 1 | 1008.9 |
| 20260509221510 | 10 | 153 | 4.8 | 11.3 | 0.00 | 0.00 | 0.00 | 1 | 1008.9 |
| 20260509221432 | 10 | 153 | 4.8 | 11.3 | 0.00 | 0.00 | 0.00 | 1 | 1008.9 |
| 20260509221235 | 10 | 180 | 4.8 | 11.3 | 0.00 | 0.00 | 0.00 | 1 | 1009.0 |
| 20260509221137 | 10 | 185 | 6.4 | 11.3 | 0.00 | 0.00 | 0.00 | 1 | 1008.9 |
| 20260509221027 | 10 | 146 | 6.4 | 11.3 | 0.00 | 0.00 | 0.00 | 1 | 1008.9 |
| 20260509220949 | 10 | 151 | 6.4 | 11.3 | 0.00 | 0.00 | 0.00 | 1 | 1009.0 |
| 20260509220731 | 10 | 156 | 6.4 | 11.3 | 0.00 | 0.00 | 0.00 | 1 | 1009.0 |
| 20260509220644 | 10 | 182 | 6.4 | 11.3 | 0.00 | 0.00 | 0.00 | 1 | 1009.0 |
| 20260509220549 | 10 | 199 | 6.4 | 12.9 | 0.00 | 0.00 | 0.00 | 1 | 1009.0 |
| 20260509220448 | 10 | 150 | 6.4 | 12.9 | 0.00 | 0.00 | 0.00 | 1 | 1009.0 |
| 20260509220352 | 10 | 160 | 6.4 | 12.9 | 0.00 | 0.00 | 0.00 | 1 | 1009.0 |
| 20260509220236 | 10 | 151 | 6.4 | 12.9 | 0.00 | 0.00 | 0.00 | 1 | 1009.0 |
| 20260509220200 | 10 | 159 | 6.4 | 12.9 | 0.00 | 0.00 | 0.00 | 1 | 1009.0 |
| 20260509220120 | 10 | 125 | 6.4 | 12.9 | 0.00 | 0.00 | 0.00 | 1 | 1009.0 |
| 20260509220021 | 10 | 202 | 6.4 | 12.9 | 0.00 | 0.00 | 0.00 | 1 | 1009.0 |
| 20260509215944 | 10 | 134 | 6.4 | 12.9 | 0.00 | 0.00 | 0.00 | 1 | 1009.0 |
| 20260509215726 | 10 | 194 | 6.4 | 14.5 | 0.00 | 0.00 | 0.00 | 1 | 1009.0 |
| 20260509215650 | 10 | 169 | 6.4 | 16.1 | 0.00 | 0.00 | 0.00 | 1 | 1009.0 |
| 20260509215533 | 10 | 131 | 4.8 | 16.1 | 0.00 | 0.00 | 0.00 | 1 | 1009.0 |
| 20260509215457 | 10 | 142 | 4.8 | 16.1 | 0.00 | 0.00 | 0.00 | 1 | 1009.0 |
| 20260509215420 | 10 | 193 | 6.4 | 16.1 | 0.00 | 0.00 | 0.00 | 1 | 1009.0 |
| 20260509215241 | 10 | 156 | 9.7 | 16.1 | 0.00 | 0.00 | 0.00 | 1 | 1009.0 |
| 20260509215145 | 11 | 146 | 11.3 | 16.1 | 0.00 | 0.00 | 0.00 | 1 | 1009.0 |
| 20260509215053 | 11 | 182 | 9.7 | 16.1 | 0.00 | 0.00 | 0.00 | 1 | 1009.0 |
| 20260509215015 | 11 | 163 | 9.7 | 16.1 | 0.00 | 0.00 | 0.00 | 1 | 1008.9 |
| 20260509214820 | 11 | 167 | 8.0 | 17.7 | 0.00 | 0.00 | 0.00 | 1 | 1009.0 |
| 20260509214733 | 11 | 184 | 6.4 | 12.9 | 0.00 | 0.00 | 0.00 | 1 | 1009.0 |
| 20260509214636 | 11 | 156 | 4.8 | 8.0 | 0.00 | 0.00 | 0.00 | 1 | 1009.0 |
| 20260509214557 | 11 | 237 | 4.8 | 14.5 | 0.00 | 0.00 | 0.00 | 1 | 1009.0 |
| 20260509214519 | 11 | 128 | 3.2 | 14.5 | 0.00 | 0.00 | 0.00 | 1 | 1009.0 |
| 20260509214401 | 11 | 159 | 3.2 | 14.5 | 0.00 | 0.00 | 0.00 | 1 | 1009.1 |
| 20260509214244 | 11 | 156 | 4.8 | 14.5 | 0.00 | 0.00 | 0.00 | 1 | 1009.1 |
| 20260509214207 | 11 | 195 | 3.2 | 14.5 | 0.00 | 0.00 | 0.00 | 1 | 1009.0 |
| 20260509214115 | 11 | 149 | 3.2 | 14.5 | 0.00 | 0.00 | 0.00 | 1 | 1009.0 |
| 20260509214038 | 11 | 238 | 3.2 | 14.5 | 0.00 | 0.00 | 0.00 | 1 | 1009.0 |
| 20260509213910 | 11 | 126 | 6.4 | 14.5 | 0.00 | 0.00 | 0.00 | 1 | 1009.1 |
| 20260509213803 | 11 | 178 | 8.0 | 14.5 | 0.00 | 0.00 | 0.00 | 1 | 1009.0 |
| 20260509213613 | 11 | 166 | 8.0 | 12.9 | 0.00 | 0.00 | 0.00 | 1 | 1009.1 |
| 20260509213515 | 11 | 204 | 8.0 | 12.9 | 0.00 | 0.00 | 0.00 | 1 | 1009.1 |
| 20260509213326 | 11 | 175 | 6.4 | 16.1 | 0.00 | 0.00 | 0.00 | 1 | 1009.1 |
| 20260509213240 | 11 | 168 | 8.0 | 16.1 | 0.00 | 0.00 | 0.00 | 1 | 1009.1 |
| 20260509213144 | 11 | 176 | 8.0 | 16.1 | 0.00 | 0.00 | 0.00 | 1 | 1009.1 |
| 20260509213048 | 11 | 169 | 8.0 | 16.1 | 0.00 | 0.00 | 0.00 | 1 | 1009.1 |
| 20260509212951 | 11 | 167 | 8.0 | 16.1 | 0.00 | 0.00 | 0.00 | 1 | 1009.1 |
| 20260509212913 | 11 | 163 | 8.0 | 16.1 | 0.00 | 0.00 | 0.00 | 1 | 1009.1 |
| 20260509212741 | 11 | 167 | 9.7 | 16.1 | 0.00 | 0.00 | 0.00 | 1 | 1009.2 |
| 20260509212645 | 11 | 151 | 11.3 | 16.1 | 0.00 | 0.00 | 0.00 | 1 | 1009.2 |
| 20260509212528 | 11 | 164 | 9.7 | 19.3 | 0.00 | 0.00 | 0.00 | 1 | 1009.2 |
| 20260509212451 | 11 | 171 | 9.7 | 17.7 | 0.00 | 0.00 | 0.00 | 1 | 1009.2 |
| 20260509212356 | 11 | 173 | 9.7 | 17.7 | 0.00 | 0.00 | 0.00 | 1 | 1009.1 |
| 20260509212318 | 11 | 158 | 9.7 | 17.7 | 0.00 | 0.00 | 0.00 | 1 | 1009.2 |
| 20260509212130 | 11 | 204 | 11.3 | 17.7 | 0.00 | 0.00 | 0.00 | 1 | 1009.2 |
| 20260509212023 | 11 | 172 | 9.7 | 19.3 | 0.00 | 0.00 | 0.00 | 1 | 1009.2 |
| 20260509211948 | 11 | 140 | 8.0 | 12.9 | 0.00 | 0.00 | 0.00 | 1 | 1009.2 |
| 20260509211816 | 11 | 163 | 6.4 | 11.3 | 0.00 | 0.00 | 0.00 | 1 | 1009.2 |
| 20260509211741 | 11 | 236 | 6.4 | 11.3 | 0.00 | 0.00 | 0.00 | 1 | 1009.2 |
| 20260509211644 | 11 | 233 | 6.4 | 11.3 | 0.00 | 0.00 | 0.00 | 1 | 1009.2 |
| 20260509211527 | 11 | 188 | 6.4 | 12.9 | 0.00 | 0.00 | 0.00 | 1 | 1009.2 |
| 20260509211450 | 11 | 191 | 4.8 | 12.9 | 0.00 | 0.00 | 0.00 | 1 | 1009.2 |
| 20260509211324 | 11 | 174 | 6.4 | 12.9 | 0.00 | 0.00 | 0.00 | 1 | 1009.2 |
| 20260509211227 | 11 | 169 | 8.0 | 14.5 | 0.00 | 0.00 | 0.00 | 1 | 1009.2 |
| 20260509211154 | 11 | 167 | 8.0 | 14.5 | 0.00 | 0.00 | 0.00 | 1 | 1009.2 |
| 20260509211118 | 11 | 161 | 6.4 | 14.5 | 0.00 | 0.00 | 0.00 | 1 | 1009.2 |
| 20260509210922 | 11 | 163 | 6.4 | 14.5 | 0.00 | 0.00 | 0.00 | 1 | 1009.2 |
| 20260509210845 | 11 | 184 | 8.0 | 14.5 | 0.00 | 0.00 | 0.00 | 1 | 1009.2 |
| 20260509210728 | 11 | 180 | 6.4 | 14.5 | 0.00 | 0.00 | 0.00 | 1 | 1009.2 |
| 20260509210652 | 11 | 182 | 4.8 | 14.5 | 0.00 | 0.00 | 0.00 | 1 | 1009.2 |
| 20260509210606 | 11 | 195 | 8.0 | 14.5 | 0.00 | 0.00 | 0.00 | 1 | 1009.2 |
| 20260509210417 | 11 | 152 | 8.0 | 14.5 | 0.00 | 0.00 | 0.00 | 1 | 1009.1 |
| 20260509210339 | 11 | 154 | 8.0 | 12.9 | 0.00 | 0.00 | 0.00 | 1 | 1009.1 |
| 20260509210210 | 11 | 179 | 9.7 | 12.9 | 0.00 | 0.00 | 0.00 | 1 | 1009.1 |
| 20260509210029 | 11 | 181 | 8.0 | 12.9 | 0.00 | 0.00 | 0.00 | 1 | 1009.2 |
| 20260509205924 | 11 | 184 | 4.8 | 14.5 | 0.00 | 0.00 | 0.00 | 1 | 1009.2 |
| 20260509205848 | 11 | 200 | 4.8 | 14.5 | 0.00 | 0.00 | 0.00 | 1 | 1009.2 |
| 20260509205731 | 11 | 178 | 4.8 | 14.5 | 0.00 | 0.00 | 0.00 | 1 | 1009.2 |
| 20260509205654 | 11 | 197 | 6.4 | 14.5 | 0.00 | 0.00 | 0.00 | 1 | 1009.2 |
| 20260509205436 | 11 | 197 | 8.0 | 14.5 | 0.00 | 0.00 | 0.00 | 1 | 1009.2 |
| 20260509205400 | 11 | 192 | 6.4 | 9.7 | 0.00 | 0.00 | 0.00 | 1 | 1009.2 |
| 20260509205307 | 11 | 180 | 3.2 | 11.3 | 0.00 | 0.00 | 0.00 | 1 | 1009.2 |
| 20260509205226 | 11 | 127 | 3.2 | 11.3 | 0.00 | 0.00 | 0.00 | 1 | 1009.2 |
| 20260509205042 | 11 | 159 | 4.8 | 11.3 | 0.00 | 0.00 | 0.00 | 1 | 1009.2 |
| 20260509204936 | 11 | 150 | 6.4 | 11.3 | 0.00 | 0.00 | 0.00 | 1 | 1009.3 |
| 20260509204900 | 11 | 135 | 6.4 | 11.3 | 0.00 | 0.00 | 0.00 | 1 | 1009.3 |
| 20260509204805 | 11 | 138 | 4.8 | 11.3 | 0.00 | 0.00 | 0.00 | 1 | 1009.2 |
| 20260509204726 | 11 | 196 | 4.8 | 11.3 | 0.00 | 0.00 | 0.00 | 1 | 1009.3 |
| 20260509204548 | 11 | 150 | 6.4 | 11.3 | 0.00 | 0.00 | 0.00 | 1 | 1009.3 |
| 20260509204441 | 11 | 164 | 4.8 | 9.7 | 0.00 | 0.00 | 0.00 | 1 | 1009.3 |
| 20260509204313 | 11 | 198 | 6.4 | 9.7 | 0.00 | 0.00 | 0.00 | 1 | 1009.3 |
| 20260509204235 | 10 | 155 | 6.4 | 9.7 | 0.00 | 0.00 | 0.00 | 1 | 1009.3 |
| 20260509204059 | 10 | 181 | 6.4 | 9.7 | 0.00 | 0.00 | 0.00 | 1 | 1009.3 |
| 20260509204021 | 10 | 178 | 4.8 | 9.7 | 0.00 | 0.00 | 0.00 | 1 | 1009.3 |
| 20260509203837 | 10 | 171 | 4.8 | 11.3 | 0.00 | 0.00 | 0.00 | 1 | 1009.3 |
| 20260509203731 | 10 | 172 | 6.4 | 11.3 | 0.00 | 0.00 | 0.00 | 1 | 1009.4 |
| 20260509203655 | 10 | 184 | 6.4 | 11.3 | 0.00 | 0.00 | 0.00 | 1 | 1009.4 |
| 20260509203600 | 10 | 163 | 6.4 | 11.3 | 0.00 | 0.00 | 0.00 | 1 | 1009.4 |
| 20260509203523 | 10 | 154 | 6.4 | 11.3 | 0.00 | 0.00 | 0.00 | 1 | 1009.4 |
| 20260509203328 | 10 | 160 | 4.8 | 11.3 | 0.00 | 0.00 | 0.00 | 1 | 1009.4 |
| 20260509203230 | 10 | 185 | 4.8 | 11.3 | 0.00 | 0.00 | 0.00 | 1 | 1009.5 |
| 20260509203133 | 10 | 161 | 6.4 | 11.3 | 0.00 | 0.00 | 0.00 | 1 | 1009.4 |
| 20260509203055 | 10 | 194 | 8.0 | 11.3 | 0.00 | 0.00 | 0.00 | 1 | 1009.4 |
| 20260509203021 | 10 | 181 | 8.0 | 12.9 | 0.00 | 0.00 | 0.00 | 1 | 1009.5 |
| 20260509202825 | 10 | 188 | 6.4 | 12.9 | 0.00 | 0.00 | 0.00 | 1 | 1009.5 |
| 20260509202727 | 10 | 174 | 6.4 | 12.9 | 0.00 | 0.00 | 0.00 | 1 | 1009.6 |
| 20260509202631 | 10 | 149 | 8.0 | 14.5 | 0.00 | 0.00 | 0.00 | 1 | 1009.5 |
| 20260509202553 | 10 | 196 | 6.4 | 12.9 | 0.00 | 0.00 | 0.00 | 1 | 1009.6 |
| 20260509202336 | 10 | 172 | 8.0 | 12.9 | 0.00 | 0.00 | 0.00 | 1 | 1009.6 |
| 20260509202239 | 10 | 175 | 6.4 | 12.9 | 0.00 | 0.00 | 0.00 | 1 | 1009.6 |
| 20260509202141 | 10 | 175 | 8.0 | 12.9 | 0.00 | 0.00 | 0.00 | 1 | 1009.5 |
| 20260509202049 | 10 | 146 | 8.0 | 12.9 | 0.00 | 0.00 | 0.00 | 1 | 1009.5 |
| 20260509201952 | 10 | 180 | 6.4 | 12.9 | 0.00 | 0.00 | 0.00 | 1 | 1009.6 |
| 20260509201854 | 10 | 202 | 6.4 | 12.9 | 0.00 | 0.00 | 0.00 | 1 | 1009.6 |
| 20260509201816 | 10 | 210 | 6.4 | 12.9 | 0.00 | 0.00 | 0.00 | 1 | 1009.6 |
| 20260509201638 | 10 | 184 | 8.0 | 12.9 | 0.00 | 0.00 | 0.00 | 1 | 1009.6 |
| 20260509201541 | 10 | 167 | 9.7 | 12.9 | 0.00 | 0.00 | 0.00 | 1 | 1009.6 |
| 20260509201427 | 10 | 160 | 8.0 | 12.9 | 0.00 | 0.00 | 0.00 | 1 | 1009.6 |
| 20260509201348 | 10 | 188 | 6.4 | 12.9 | 0.00 | 0.00 | 0.00 | 1 | 1009.6 |
| 20260509201220 | 10 | 212 | 6.4 | 12.9 | 0.00 | 0.00 | 0.00 | 1 | 1009.6 |
| 20260509201136 | 10 | 153 | 6.4 | 12.9 | 0.00 | 0.00 | 0.00 | 1 | 1009.6 |
| 20260509201006 | 10 | 191 | 6.4 | 12.9 | 0.00 | 0.00 | 0.00 | 1 | 1009.6 |
| 20260509200931 | 10 | 178 | 6.4 | 12.9 | 0.00 | 0.00 | 0.00 | 1 | 1009.6 |
| 20260509200734 | 11 | 171 | 8.0 | 12.9 | 0.00 | 0.00 | 0.00 | 1 | 1009.6 |
| 20260509200656 | 11 | 180 | 8.0 | 12.9 | 0.00 | 0.00 | 0.00 | 1 | 1009.6 |
| 20260509200600 | 11 | 191 | 6.4 | 12.9 | 0.00 | 0.00 | 0.00 | 1 | 1009.6 |
| 20260509200523 | 11 | 173 | 8.0 | 12.9 | 0.00 | 0.00 | 0.00 | 1 | 1009.6 |
| 20260509200327 | 11 | 228 | 6.4 | 12.9 | 0.00 | 0.00 | 0.00 | 1 | 1009.6 |
| 20260509200229 | 11 | 152 | 8.0 | 11.3 | 0.00 | 0.00 | 0.00 | 1 | 1009.6 |
| 20260509200133 | 11 | 185 | 8.0 | 11.3 | 0.00 | 0.00 | 0.00 | 1 | 1009.6 |
| 20260509200034 | 11 | 162 | 8.0 | 11.3 | 0.00 | 0.00 | 0.00 | 1 | 1009.6 |
| 20260509200002 | 11 | 167 | 6.4 | 11.3 | 0.00 | 0.00 | 0.00 | 1 | 1009.6 |
| 20260509195906 | 11 | 152 | 6.4 | 11.3 | 0.00 | 0.00 | 0.00 | 1 | 1009.6 |
| 20260509195808 | 11 | 182 | 6.4 | 11.3 | 0.00 | 0.00 | 0.00 | 1 | 1009.5 |
| 20260509195730 | 11 | 201 | 6.4 | 11.3 | 0.00 | 0.00 | 0.00 | 1 | 1009.6 |
| 20260509195613 | 11 | 207 | 6.4 | 11.3 | 0.00 | 0.00 | 0.00 | 1 | 1009.6 |
| 20260509195535 | 11 | 196 | 8.0 | 11.3 | 0.00 | 0.00 | 0.00 | 1 | 1009.6 |
| 20260509195345 | 11 | 166 | 6.4 | 11.3 | 0.00 | 0.00 | 0.00 | 1 | 1009.6 |
| 20260509195240 | 11 | 172 | 4.8 | 11.3 | 0.00 | 0.00 | 0.00 | 1 | 1009.6 |
| 20260509195109 | 11 | 159 | 6.4 | 11.3 | 0.00 | 0.00 | 0.00 | 1 | 1009.6 |
| 20260509195031 | 11 | 174 | 8.0 | 11.3 | 0.00 | 0.00 | 0.00 | 1 | 1009.6 |
| 20260509194835 | 11 | 191 | 6.4 | 9.7 | 0.00 | 0.00 | 0.00 | 1 | 1009.6 |
| 20260509194740 | 11 | 197 | 3.2 | 9.7 | 0.00 | 0.00 | 0.00 | 1 | 1009.6 |
| 20260509194646 | 11 | 188 | 4.8 | 9.7 | 0.00 | 0.00 | 0.00 | 1 | 1009.6 |
| 20260509194607 | 11 | 190 | 4.8 | 12.9 | 0.00 | 0.00 | 0.00 | 1 | 1009.6 |
| 20260509194439 | 11 | 221 | 6.4 | 14.5 | 0.00 | 0.00 | 0.00 | 1 | 1009.6 |
| 20260509194335 | 11 | 190 | 6.4 | 14.5 | 0.00 | 0.00 | 0.00 | 1 | 1009.6 |
| 20260509194205 | 11 | 185 | 6.4 | 14.5 | 0.00 | 0.00 | 0.00 | 1 | 1009.6 |
| 20260509194128 | 11 | 159 | 6.4 | 14.5 | 0.00 | 0.00 | 0.00 | 1 | 1009.7 |
| 20260509193931 | 11 | 155 | 6.4 | 14.5 | 0.00 | 0.00 | 0.00 | 1 | 1009.7 |
| 20260509193835 | 11 | 132 | 8.0 | 14.5 | 0.00 | 0.00 | 0.00 | 1 | 1009.7 |
| 20260509193737 | 11 | 178 | 9.7 | 14.5 | 0.00 | 0.00 | 0.00 | 1 | 1009.7 |
| 20260509193701 | 11 | 176 | 9.7 | 16.1 | 0.00 | 0.00 | 0.00 | 1 | 1009.7 |
| 20260509193628 | 11 | 180 | 8.0 | 16.1 | 0.00 | 0.00 | 0.00 | 1 | 1009.6 |
| 20260509193432 | 11 | 178 | 8.0 | 14.5 | 0.00 | 0.00 | 0.00 | 1 | 1009.7 |
| 20260509193356 | 11 | 163 | 8.0 | 16.1 | 0.00 | 0.00 | 0.00 | 1 | 1009.7 |
| 20260509193301 | 11 | 150 | 6.4 | 16.1 | 0.00 | 0.00 | 0.00 | 1 | 1009.7 |
| 20260509193141 | 11 | 148 | 8.0 | 16.1 | 0.00 | 0.00 | 0.00 | 1 | 1009.7 |
| 20260509193047 | 11 | 167 | 9.7 | 17.7 | 0.00 | 0.00 | 0.00 | 1 | 1009.7 |
| 20260509193008 | 11 | 175 | 9.7 | 17.7 | 0.00 | 0.00 | 0.00 | 1 | 1009.7 |
| 20260509192820 | 11 | 121 | 9.7 | 17.7 | 0.00 | 0.00 | 0.00 | 1 | 1009.7 |
| 20260509192730 | 11 | 164 | 11.3 | 17.7 | 0.00 | 0.00 | 0.00 | 1 | 1009.7 |
| 20260509192614 | 11 | 161 | 9.7 | 17.7 | 0.00 | 0.00 | 0.00 | 1 | 1009.8 |
| 20260509192536 | 11 | 175 | 9.7 | 17.7 | 0.00 | 0.00 | 0.00 | 1 | 1009.8 |
| 20260509192335 | 11 | 182 | 11.3 | 17.7 | 0.00 | 0.00 | 0.00 | 1 | 1009.8 |
| 20260509192237 | 11 | 222 | 11.3 | 17.7 | 0.00 | 0.00 | 0.00 | 1 | 1009.8 |
| 20260509192140 | 11 | 194 | 11.3 | 22.5 | 0.00 | 0.00 | 0.00 | 1 | 1009.8 |
| 20260509192043 | 11 | 166 | 12.9 | 22.5 | 0.00 | 0.00 | 0.00 | 1 | 1009.8 |
| 20260509191959 | 11 | 189 | 12.9 | 22.5 | 0.00 | 0.00 | 0.00 | 1 | 1009.9 |
| 20260509191717 | 11 | 202 | 8.0 | 16.1 | 0.00 | 0.00 | 0.00 | 1 | 1009.8 |
| 20260509191639 | 11 | 194 | 9.7 | 16.1 | 0.00 | 0.00 | 0.00 | 1 | 1009.9 |
| 20260509191510 | 11 | 151 | 9.7 | 16.1 | 0.00 | 0.00 | 0.00 | 1 | 1009.9 |
| 20260509191426 | 11 | 121 | 8.0 | 16.1 | 0.00 | 0.00 | 0.00 | 1 | 1009.9 |
| 20260509191309 | 11 | 163 | 9.7 | 16.1 | 0.00 | 0.00 | 0.00 | 1 | 1009.8 |
| 20260509191214 | 11 | 163 | 11.3 | 16.1 | 0.00 | 0.00 | 0.00 | 1 | 1009.9 |
| 20260509191028 | 11 | 115 | 9.7 | 16.1 | 0.00 | 0.00 | 0.00 | 1 | 1009.9 |
| 20260509190952 | 11 | 185 | 9.7 | 16.1 | 0.00 | 0.00 | 0.00 | 2 | 1009.9 |
| 20260509190855 | 11 | 207 | 9.7 | 16.1 | 0.00 | 0.00 | 0.00 | 3 | 1010.0 |
| 20260509190758 | 11 | 200 | 9.7 | 16.1 | 0.00 | 0.00 | 0.00 | 2 | 1010.0 |
| 20260509190721 | 11 | 163 | 9.7 | 14.5 | 0.00 | 0.00 | 0.00 | 2 | 1010.0 |
| 20260509190525 | 11 | 197 | 11.3 | 14.5 | 0.00 | 0.00 | 0.00 | 6 | 1009.9 |
| 20260509190428 | 11 | 190 | 11.3 | 14.5 | 0.00 | 0.00 | 0.00 | 6 | 1009.9 |
| 20260509190331 | 11 | 167 | 9.7 | 14.5 | 0.00 | 0.00 | 0.00 | 7 | 1009.9 |
| 20260509190253 | 11 | 180 | 8.0 | 14.5 | 0.00 | 0.00 | 0.00 | 6 | 1009.9 |
| 20260509190127 | 11 | 176 | 9.7 | 14.5 | 0.00 | 0.00 | 0.00 | 9 | 1009.9 |
| 20260509190023 | 11 | 167 | 9.7 | 14.5 | 0.00 | 0.00 | 0.00 | 6 | 1009.9 |
| 20260509185833 | 11 | 178 | 6.4 | 14.5 | 0.00 | 0.00 | 0.00 | 5 | 1009.9 |
| 20260509185750 | 11 | 194 | 6.4 | 14.5 | 0.00 | 0.00 | 0.00 | 5 | 1009.9 |
| 20260509185721 | 11 | 202 | 4.8 | 14.5 | 0.00 | 0.00 | 0.00 | 2 | 1009.9 |
| 20260509185534 | 11 | 158 | 6.4 | 14.5 | 0.00 | 0.00 | 0.00 | 7 | 1009.9 |
| 20260509185428 | 11 | 161 | 6.4 | 14.5 | 0.00 | 0.00 | 0.00 | 9 | 1009.9 |
| 20260509185352 | 11 | 146 | 8.0 | 14.5 | 0.00 | 0.00 | 0.00 | 9 | 1009.9 |
| 20260509185236 | 11 | 197 | 9.7 | 16.1 | 0.00 | 0.00 | 0.00 | 9 | 1010.0 |
| 20260509185202 | 11 | 166 | 6.4 | 12.9 | 0.00 | 0.00 | 0.00 | 5 | 1010.1 |
| 20260509185023 | 11 | 181 | 4.8 | 11.3 | 0.00 | 0.00 | 0.00 | 6 | 1010.1 |
| 20260509184946 | 11 | 179 | 4.8 | 11.3 | 0.00 | 0.00 | 0.00 | 7 | 1010.1 |
| 20260509184824 | 11 | 196 | 4.8 | 11.3 | 0.00 | 0.00 | 0.00 | 5 | 1010.1 |
| 20260509184727 | 11 | 158 | 4.8 | 11.3 | 0.00 | 0.00 | 0.00 | 4 | 1010.1 |
| 20260509184650 | 11 | 153 | 4.8 | 11.3 | 0.00 | 0.00 | 0.00 | 4 | 1010.1 |
| 20260509184614 | 11 | 153 | 6.4 | 11.3 | 0.00 | 0.00 | 0.00 | 6 | 1010.1 |
| 20260509184436 | 11 | 211 | 6.4 | 11.3 | 0.00 | 0.00 | 0.00 | 8 | 1010.1 |
| 20260509184359 | 11 | 156 | 6.4 | 11.3 | 0.00 | 0.00 | 0.00 | 6 | 1010.1 |
| 20260509184325 | 11 | 161 | 4.8 | 11.3 | 0.00 | 0.00 | 0.00 | 6 | 1010.1 |
| 20260509184207 | 11 | 225 | 3.2 | 14.5 | 0.00 | 0.00 | 0.00 | 7 | 1010.1 |
| 20260509184128 | 11 | 192 | 4.8 | 14.5 | 0.00 | 0.00 | 0.00 | 7 | 1010.1 |
| 20260509183932 | 11 | 152 | 4.8 | 16.1 | 0.00 | 0.00 | 0.00 | 6 | 1010.1 |
| 20260509183835 | 11 | 164 | 4.8 | 16.1 | 0.00 | 0.00 | 0.00 | 6 | 1010.1 |
| 20260509183738 | 11 | 183 | 6.4 | 16.1 | 0.00 | 0.00 | 0.00 | 6 | 1010.1 |
| 20260509183701 | 11 | 182 | 6.4 | 16.1 | 0.00 | 0.00 | 0.00 | 5 | 1010.1 |
| 20260509183624 | 11 | 172 | 6.4 | 16.1 | 0.00 | 0.00 | 0.00 | 7 | 1010.2 |
| 20260509183426 | 11 | 198 | 8.0 | 16.1 | 0.00 | 0.00 | 0.00 | 4 | 1010.2 |
| 20260509183350 | 11 | 194 | 9.7 | 16.1 | 0.00 | 0.00 | 0.00 | 3 | 1010.2 |
| 20260509183237 | 11 | 217 | 9.7 | 16.1 | 0.00 | 0.00 | 0.00 | 2 | 1010.2 |
| 20260509183200 | 11 | 193 | 8.0 | 16.1 | 0.00 | 0.00 | 0.00 | 2 | 1010.2 |
| 20260509183115 | 11 | 230 | 6.4 | 12.9 | 0.00 | 0.00 | 0.00 | 1 | 1010.2 |
| 20260509182925 | 11 | 200 | 4.8 | 11.3 | 0.00 | 0.00 | 0.00 | 1 | 1010.3 |
| 20260509182826 | 11 | 190 | 4.8 | 11.3 | 0.00 | 0.00 | 0.00 | 1 | 1010.2 |
| 20260509182629 | 11 | 188 | 4.8 | 11.3 | 0.00 | 0.00 | 0.00 | 1 | 1010.2 |
| 20260509182533 | 11 | 173 | 4.8 | 11.3 | 0.00 | 0.00 | 0.00 | 1 | 1010.2 |
| 20260509182436 | 11 | 231 | 4.8 | 11.3 | 0.00 | 0.00 | 0.00 | 1 | 1010.3 |
| 20260509182359 | 11 | 155 | 4.8 | 11.3 | 0.00 | 0.00 | 0.00 | 1 | 1010.3 |
| 20260509182236 | 11 | 143 | 6.4 | 11.3 | 0.00 | 0.00 | 0.00 | 1 | 1010.3 |
| 20260509182137 | 11 | 191 | 8.0 | 11.3 | 0.00 | 0.00 | 0.00 | 1 | 1010.3 |
| 20260509182037 | 11 | 181 | 9.7 | 12.9 | 0.00 | 0.00 | 0.00 | 1 | 1010.3 |
| 20260509182001 | 11 | 170 | 8.0 | 12.9 | 0.00 | 0.00 | 0.00 | 1 | 1010.3 |
| 20260509181823 | 11 | 190 | 6.4 | 12.9 | 0.00 | 0.00 | 0.00 | 1 | 1010.4 |
| 20260509181746 | 11 | 150 | 6.4 | 11.3 | 0.00 | 0.00 | 0.00 | 1 | 1010.4 |
| 20260509181709 | 11 | 149 | 6.4 | 11.3 | 0.00 | 0.00 | 0.00 | 1 | 1010.3 |
| 20260509181623 | 11 | 163 | 8.0 | 11.3 | 0.00 | 0.00 | 0.00 | 1 | 1010.4 |
| 20260509181526 | 11 | 174 | 8.0 | 11.3 | 0.00 | 0.00 | 0.00 | 1 | 1010.4 |
| 20260509181337 | 11 | 157 | 8.0 | 12.9 | 0.00 | 0.00 | 0.00 | 1 | 1010.4 |
| 20260509181235 | 11 | 206 | 6.4 | 11.3 | 0.00 | 0.00 | 0.00 | 1 | 1010.4 |
| 20260509181159 | 11 | 209 | 6.4 | 11.3 | 0.00 | 0.00 | 0.00 | 1 | 1010.4 |
| 20260509181102 | 11 | 201 | 4.8 | 12.9 | 0.00 | 0.00 | 0.00 | 1 | 1010.4 |
| 20260509181004 | 11 | 193 | 6.4 | 12.9 | 0.00 | 0.00 | 0.00 | 1 | 1010.4 |
| 20260509180924 | 11 | 217 | 4.8 | 12.9 | 0.00 | 0.00 | 0.00 | 1 | 1010.4 |
| 20260509180728 | 11 | 217 | 6.4 | 12.9 | 0.00 | 0.00 | 0.00 | 1 | 1010.4 |
| 20260509180649 | 11 | 194 | 8.0 | 12.9 | 0.00 | 0.00 | 0.00 | 1 | 1010.4 |
| 20260509180533 | 11 | 193 | 6.4 | 12.9 | 0.00 | 0.00 | 0.00 | 1 | 1010.4 |
| 20260509180456 | 11 | 169 | 6.4 | 12.9 | 0.00 | 0.00 | 0.00 | 1 | 1010.4 |
| 20260509180324 | 11 | 190 | 8.0 | 12.9 | 0.00 | 0.00 | 0.00 | 1 | 1010.4 |
| 20260509180246 | 11 | 172 | 8.0 | 12.9 | 0.00 | 0.00 | 0.00 | 1 | 1010.4 |
| 20260509180117 | 11 | 227 | 6.4 | 11.3 | 0.00 | 0.00 | 0.00 | 1 | 1010.4 |
| 20260509180027 | 11 | 189 | 6.4 | 11.3 | 0.00 | 0.00 | 0.00 | 1 | 1010.3 |
| 20260509175838 | 10 | 175 | 8.0 | 12.9 | 0.00 | 0.00 | 0.00 | 1 | 1010.3 |
| 20260509175734 | 10 | 159 | 8.0 | 12.9 | 0.00 | 0.00 | 0.00 | 1 | 1010.3 |
| 20260509175618 | 10 | 148 | 8.0 | 12.9 | 0.00 | 0.00 | 0.00 | 1 | 1010.3 |
| 20260509175550 | 10 | 155 | 8.0 | 12.9 | 0.00 | 0.00 | 0.00 | 1 | 1010.3 |
| 20260509175451 | 10 | 171 | 8.0 | 12.9 | 0.00 | 0.00 | 0.00 | 1 | 1010.3 |
| 20260509175355 | 10 | 194 | 8.0 | 12.9 | 0.00 | 0.00 | 0.00 | 1 | 1010.3 |
| 20260509175300 | 10 | 178 | 8.0 | 12.9 | 0.00 | 0.00 | 0.00 | 1 | 1010.3 |
| 20260509175131 | 10 | 130 | 8.0 | 12.9 | 0.00 | 0.00 | 0.00 | 1 | 1010.4 |
| 20260509175027 | 10 | 165 | 8.0 | 12.9 | 0.00 | 0.00 | 0.00 | 1 | 1010.4 |
| 20260509174838 | 10 | 165 | 6.4 | 11.3 | 0.00 | 0.00 | 0.00 | 1 | 1010.5 |
| 20260509174712 | 10 | 166 | 6.4 | 11.3 | 0.00 | 0.00 | 0.00 | 1 | 1010.5 |
| 20260509174627 | 10 | 180 | 8.0 | 11.3 | 0.00 | 0.00 | 0.00 | 1 | 1010.5 |
| 20260509174529 | 10 | 156 | 8.0 | 11.3 | 0.00 | 0.00 | 0.00 | 1 | 1010.5 |
| 20260509174454 | 10 | 161 | 6.4 | 11.3 | 0.00 | 0.00 | 0.00 | 1 | 1010.5 |
| 20260509174355 | 10 | 196 | 4.8 | 11.3 | 0.00 | 0.00 | 0.00 | 1 | 1010.5 |
| 20260509174321 | 10 | 189 | 4.8 | 11.3 | 0.00 | 0.00 | 0.00 | 1 | 1010.5 |
| 20260509174124 | 10 | 144 | 4.8 | 14.5 | 0.00 | 0.00 | 0.00 | 1 | 1010.5 |
| 20260509174026 | 10 | 177 | 6.4 | 14.5 | 0.00 | 0.00 | 0.00 | 1 | 1010.6 |
| 20260509173930 | 10 | 180 | 6.4 | 14.5 | 0.00 | 0.00 | 0.00 | 1 | 1010.6 |
| 20260509173830 | 10 | 176 | 8.0 | 14.5 | 0.00 | 0.00 | 0.00 | 1 | 1010.6 |
| 20260509173634 | 10 | 174 | 8.0 | 14.5 | 0.00 | 0.00 | 0.00 | 1 | 1010.7 |
| 20260509173537 | 10 | 169 | 8.0 | 14.5 | 0.00 | 0.00 | 0.00 | 1 | 1010.7 |
| 20260509173440 | 10 | 186 | 8.0 | 14.5 | 0.00 | 0.00 | 0.00 | 1 | 1010.7 |
| 20260509173402 | 10 | 167 | 9.7 | 14.5 | 0.00 | 0.00 | 0.00 | 1 | 1010.7 |
| 20260509173328 | 10 | 202 | 9.7 | 14.5 | 0.00 | 0.00 | 0.00 | 1 | 1010.7 |
| 20260509173133 | 10 | 188 | 6.4 | 16.1 | 0.00 | 0.00 | 0.00 | 1 | 1010.7 |
| 20260509173035 | 10 | 141 | 6.4 | 16.1 | 0.00 | 0.00 | 0.00 | 3 | 1010.7 |
| 20260509172938 | 10 | 167 | 9.7 | 16.1 | 0.00 | 0.00 | 0.00 | 5 | 1010.7 |
| 20260509172842 | 10 | 184 | 9.7 | 17.7 | 0.00 | 0.00 | 0.00 | 5 | 1010.7 |
| 20260509172735 | 10 | 129 | 9.7 | 16.1 | 0.00 | 0.00 | 0.00 | 6 | 1010.7 |
| 20260509172659 | 10 | 160 | 9.7 | 16.1 | 0.00 | 0.00 | 0.00 | 7 | 1010.7 |
| 20260509172528 | 10 | 182 | 9.7 | 17.7 | 0.00 | 0.00 | 0.00 | 8 | 1010.8 |
| 20260509172444 | 10 | 184 | 9.7 | 17.7 | 0.00 | 0.00 | 0.00 | 10 | 1010.8 |
| 20260509172314 | 10 | 148 | 8.0 | 17.7 | 0.00 | 0.00 | 0.00 | 9 | 1010.9 |
| 20260509172215 | 10 | 191 | 6.4 | 17.7 | 0.00 | 0.00 | 0.00 | 10 | 1010.8 |
| 20260509172119 | 10 | 198 | 6.4 | 17.7 | 0.00 | 0.00 | 0.00 | 12 | 1010.9 |
| 20260509172041 | 10 | 157 | 6.4 | 17.7 | 0.00 | 0.00 | 0.00 | 15 | 1010.8 |
| 20260509171820 | 10 | 161 | 8.0 | 20.9 | 0.00 | 0.00 | 0.00 | 15 | 1010.8 |
| 20260509171730 | 10 | 195 | 9.7 | 20.9 | 0.00 | 0.00 | 0.00 | 17 | 1010.9 |
| 20260509171632 | 10 | 189 | 9.7 | 20.9 | 0.00 | 0.00 | 0.00 | 17 | 1011.0 |
| 20260509171550 | 10 | 188 | 9.7 | 20.9 | 0.00 | 0.00 | 0.00 | 19 | 1010.9 |
| 20260509171358 | 10 | 153 | 9.7 | 20.9 | 0.00 | 0.00 | 0.00 | 22 | 1011.0 |
| 20260509171305 | 10 | 194 | 9.7 | 20.9 | 0.00 | 0.00 | 0.00 | 22 | 1011.0 |
| 20260509171209 | 10 | 156 | 8.0 | 20.9 | 0.00 | 0.00 | 0.00 | 24 | 1011.0 |
| 20260509171129 | 10 | 206 | 11.3 | 20.9 | 0.00 | 0.00 | 0.00 | 25 | 1011.0 |
| 20260509170933 | 10 | 194 | 8.0 | 22.5 | 0.00 | 0.00 | 0.00 | 28 | 1010.9 |
| 20260509170836 | 10 | 176 | 8.0 | 22.5 | 0.00 | 0.00 | 0.00 | 29 | 1010.9 |
| 20260509170740 | 10 | 163 | 9.7 | 22.5 | 0.00 | 0.00 | 0.00 | 32 | 1010.9 |
| 20260509170643 | 10 | 213 | 8.0 | 20.9 | 0.00 | 0.00 | 0.00 | 34 | 1010.9 |
| 20260509170539 | 10 | 182 | 9.7 | 20.9 | 0.00 | 0.00 | 0.00 | 36 | 1010.9 |
| 20260509170427 | 10 | 173 | 14.5 | 20.9 | 0.00 | 0.00 | 0.00 | 36 | 1010.9 |
| 20260509170349 | 10 | 184 | 14.5 | 20.9 | 0.00 | 0.00 | 0.00 | 38 | 1010.9 |
| 20260509170323 | 10 | 167 | 14.5 | 20.9 | 0.00 | 0.00 | 0.00 | 39 | 1010.9 |
| 20260509170125 | 10 | 174 | 12.9 | 25.7 | 0.00 | 0.00 | 0.00 | 41 | 1010.8 |
| 20260509170049 | 10 | 161 | 14.5 | 25.7 | 0.00 | 0.00 | 0.00 | 42 | 1010.8 |
| 20260509165933 | 11 | 178 | 16.1 | 27.4 | 0.00 | 0.00 | 0.00 | 43 | 1010.8 |
| 20260509165854 | 11 | 187 | 14.5 | 27.4 | 0.00 | 0.00 | 0.00 | 44 | 1010.9 |
| 20260509165754 | 11 | 121 | 11.3 | 27.4 | 0.00 | 0.00 | 0.00 | 44 | 1010.9 |
| 20260509165659 | 11 | 196 | 11.3 | 27.4 | 0.00 | 0.00 | 0.00 | 44 | 1010.9 |
| 20260509165621 | 11 | 181 | 11.3 | 27.4 | 0.00 | 0.00 | 0.00 | 45 | 1010.9 |
| 20260509165427 | 11 | 181 | 16.1 | 27.4 | 0.00 | 0.00 | 0.00 | 46 | 1010.9 |
| 20260509165330 | 11 | 140 | 17.7 | 27.4 | 0.00 | 0.00 | 0.00 | 46 | 1010.9 |
| 20260509165234 | 11 | 158 | 16.1 | 27.4 | 0.00 | 0.00 | 0.00 | 47 | 1010.9 |
| 20260509165156 | 11 | 191 | 11.3 | 20.9 | 0.00 | 0.00 | 0.00 | 47 | 1010.9 |
| 20260509165026 | 11 | 188 | 11.3 | 19.3 | 0.00 | 0.00 | 0.00 | 48 | 1010.9 |
| 20260509164928 | 11 | 171 | 11.3 | 19.3 | 0.00 | 0.00 | 0.00 | 48 | 1010.9 |
| 20260509164810 | 11 | 164 | 11.3 | 19.3 | 0.00 | 0.00 | 0.00 | 48 | 1010.9 |
| 20260509164731 | 11 | 207 | 11.3 | 19.3 | 0.00 | 0.00 | 0.00 | 49 | 1010.9 |
| 20260509164536 | 11 | 181 | 12.9 | 19.3 | 0.00 | 0.00 | 0.00 | 50 | 1010.9 |
| 20260509164438 | 11 | 195 | 12.9 | 20.9 | 0.00 | 0.00 | 0.00 | 50 | 1010.9 |
| 20260509164321 | 11 | 209 | 12.9 | 22.5 | 0.00 | 0.00 | 0.00 | 51 | 1010.9 |
| 20260509164244 | 11 | 202 | 12.9 | 22.5 | 0.00 | 0.00 | 0.00 | 51 | 1010.9 |
| 20260509164147 | 11 | 148 | 12.9 | 22.5 | 0.00 | 0.00 | 0.00 | 51 | 1010.9 |
| 20260509164110 | 11 | 169 | 12.9 | 22.5 | 0.00 | 0.00 | 0.00 | 51 | 1010.8 |
| 20260509164042 | 11 | 149 | 12.9 | 22.5 | 0.00 | 0.00 | 0.00 | 51 | 1010.9 |
| 20260509163906 | 11 | 149 | 11.3 | 22.5 | 0.00 | 0.00 | 0.00 | 52 | 1010.9 |
| 20260509163828 | 11 | 138 | 9.7 | 17.7 | 0.00 | 0.00 | 0.00 | 52 | 1010.9 |
| 20260509163640 | 11 | 139 | 12.9 | 24.1 | 0.00 | 0.00 | 0.00 | 52 | 1010.9 |
| 20260509163536 | 11 | 186 | 11.3 | 24.1 | 0.00 | 0.00 | 0.00 | 52 | 1010.9 |
| 20260509163423 | 11 | 161 | 12.9 | 24.1 | 0.00 | 0.00 | 0.00 | 52 | 1010.9 |
| 20260509163346 | 11 | 148 | 12.9 | 24.1 | 0.00 | 0.00 | 0.00 | 52 | 1010.9 |
| 20260509163308 | 11 | 163 | 12.9 | 24.1 | 0.00 | 0.00 | 0.00 | 52 | 1011.0 |
| 20260509163212 | 11 | 202 | 12.9 | 24.1 | 0.00 | 0.00 | 0.00 | 52 | 1011.0 |
| 20260509163136 | 11 | 227 | 12.9 | 24.1 | 0.00 | 0.00 | 0.00 | 52 | 1011.0 |
| 20260509163007 | 12 | 211 | 14.5 | 24.1 | 0.00 | 0.00 | 0.00 | 52 | 1011.0 |
| 20260509162923 | 12 | 163 | 14.5 | 24.1 | 0.00 | 0.00 | 0.00 | 52 | 1011.0 |
| 20260509162732 | 12 | 167 | 12.9 | 20.9 | 0.00 | 0.00 | 0.00 | 52 | 1011.0 |
| 20260509162647 | 12 | 237 | 14.5 | 20.9 | 0.00 | 0.00 | 0.00 | 52 | 1011.0 |
| 20260509162519 | 12 | 186 | 11.3 | 22.5 | 0.00 | 0.00 | 0.00 | 52 | 1011.0 |
| 20260509162440 | 12 | 163 | 11.3 | 22.5 | 0.00 | 0.00 | 0.00 | 52 | 1011.0 |
| 20260509162312 | 12 | 197 | 14.5 | 25.7 | 0.00 | 0.00 | 0.00 | 51 | 1010.9 |
| 20260509162231 | 12 | 162 | 14.5 | 25.7 | 0.00 | 0.00 | 0.00 | 51 | 1010.9 |
| 20260509162102 | 12 | 176 | 12.9 | 27.4 | 0.00 | 0.00 | 0.00 | 51 | 1010.9 |
| 20260509162005 | 12 | 202 | 14.5 | 27.4 | 0.00 | 0.00 | 0.00 | 51 | 1010.9 |
| 20260509161920 | 12 | 177 | 16.1 | 27.4 | 0.00 | 0.00 | 0.00 | 51 | 1011.0 |
| 20260509161749 | 12 | 200 | 12.9 | 27.4 | 0.00 | 0.00 | 0.00 | 51 | 1011.0 |
| 20260509161643 | 12 | 145 | 14.5 | 27.4 | 0.00 | 0.00 | 0.00 | 51 | 1011.0 |
| 20260509161556 | 12 | 160 | 16.1 | 27.4 | 0.00 | 0.00 | 0.00 | 50 | 1011.0 |
| 20260509161427 | 12 | 194 | 20.9 | 27.4 | 0.00 | 0.00 | 0.00 | 50 | 1011.0 |
| 20260509161326 | 12 | 152 | 19.3 | 27.4 | 0.00 | 0.00 | 0.00 | 50 | 1011.0 |
| 20260509161220 | 12 | 211 | 16.1 | 27.4 | 0.00 | 0.00 | 0.00 | 50 | 1011.0 |
| 20260509161143 | 12 | 147 | 14.5 | 25.7 | 0.00 | 0.00 | 0.00 | 50 | 1011.1 |
| 20260509160931 | 13 | 163 | 16.1 | 25.7 | 0.00 | 0.00 | 0.00 | 51 | 1011.1 |
| 20260509160834 | 13 | 191 | 11.3 | 25.7 | 0.00 | 0.00 | 0.00 | 50 | 1011.1 |
| 20260509160738 | 13 | 171 | 14.5 | 20.9 | 0.00 | 0.00 | 0.00 | 50 | 1011.1 |
| 20260509160640 | 13 | 169 | 12.9 | 20.9 | 0.00 | 0.00 | 0.00 | 51 | 1011.0 |
| 20260509160523 | 13 | 150 | 11.3 | 20.9 | 0.00 | 0.00 | 0.00 | 51 | 1011.1 |
| 20260509160447 | 13 | 159 | 12.9 | 20.9 | 0.00 | 0.00 | 0.00 | 50 | 1011.1 |
| 20260509160323 | 13 | 208 | 14.5 | 24.1 | 0.00 | 0.00 | 0.00 | 50 | 1011.1 |
| 20260509160237 | 13 | 229 | 12.9 | 24.1 | 0.00 | 0.00 | 0.00 | 49 | 1011.1 |
| 20260509160141 | 13 | 257 | 12.9 | 24.1 | 0.00 | 0.00 | 0.00 | 49 | 1011.1 |
| 20260509160012 | 13 | 223 | 12.9 | 24.1 | 0.00 | 0.00 | 0.00 | 50 | 1011.1 |
| 20260509155935 | 13 | 235 | 11.3 | 24.1 | 0.00 | 0.00 | 0.00 | 50 | 1011.1 |
| 20260509155738 | 13 | 154 | 14.5 | 24.1 | 0.00 | 0.00 | 0.00 | 48 | 1011.2 |
| 20260509155701 | 13 | 209 | 16.1 | 24.1 | 0.00 | 0.00 | 0.00 | 48 | 1011.2 |
| 20260509155604 | 13 | 214 | 14.5 | 24.1 | 0.00 | 0.00 | 0.00 | 48 | 1011.2 |
| 20260509155527 | 13 | 188 | 16.1 | 24.1 | 0.00 | 0.00 | 0.00 | 47 | 1011.2 |
| 20260509155331 | 13 | 205 | 14.5 | 24.1 | 0.00 | 0.00 | 0.00 | 47 | 1011.2 |
| 20260509155232 | 13 | 157 | 14.5 | 24.1 | 0.00 | 0.00 | 0.00 | 47 | 1011.1 |
| 20260509155136 | 13 | 168 | 14.5 | 24.1 | 0.00 | 0.00 | 0.00 | 46 | 1011.2 |
| 20260509155040 | 13 | 231 | 12.9 | 25.7 | 0.00 | 0.00 | 0.00 | 47 | 1011.2 |
| 20260509155004 | 13 | 197 | 12.9 | 19.3 | 0.00 | 0.00 | 0.00 | 47 | 1011.2 |
| 20260509154907 | 13 | 202 | 14.5 | 19.3 | 0.00 | 0.00 | 0.00 | 46 | 1011.2 |
| 20260509154829 | 13 | 182 | 14.5 | 17.7 | 0.00 | 0.00 | 0.00 | 46 | 1011.3 |
| 20260509154633 | 13 | 190 | 11.3 | 22.5 | 0.00 | 0.00 | 0.00 | 48 | 1011.2 |
| 20260509154536 | 12 | 175 | 12.9 | 22.5 | 0.00 | 0.00 | 0.00 | 48 | 1011.2 |
| 20260509154439 | 12 | 184 | 9.7 | 22.5 | 0.00 | 0.00 | 0.00 | 48 | 1011.2 |
| 20260509154401 | 12 | 194 | 9.7 | 22.5 | 0.00 | 0.00 | 0.00 | 48 | 1011.2 |
| 20260509154324 | 12 | 220 | 9.7 | 27.4 | 0.00 | 0.00 | 0.00 | 47 | 1011.2 |
| 20260509154130 | 12 | 175 | 12.9 | 27.4 | 0.00 | 0.00 | 0.00 | 46 | 1011.3 |
| 20260509154054 | 12 | 165 | 14.5 | 27.4 | 0.00 | 0.00 | 0.00 | 46 | 1011.3 |
| 20260509153937 | 12 | 151 | 16.1 | 27.4 | 0.00 | 0.00 | 0.00 | 46 | 1011.4 |
| 20260509153901 | 12 | 169 | 14.5 | 27.4 | 0.00 | 0.00 | 0.00 | 46 | 1011.4 |
| 20260509153814 | 12 | 155 | 14.5 | 27.4 | 0.00 | 0.00 | 0.00 | 47 | 1011.3 |
| 20260509153624 | 12 | 122 | 17.7 | 27.4 | 0.00 | 0.00 | 0.00 | 44 | 1011.4 |
| 20260509153549 | 12 | 169 | 17.7 | 27.4 | 0.00 | 0.00 | 0.00 | 44 | 1011.4 |
| 20260509153443 | 12 | 186 | 14.5 | 20.9 | 0.00 | 0.00 | 0.00 | 44 | 1011.4 |
| 20260509153325 | 12 | 165 | 12.9 | 20.9 | 0.00 | 0.00 | 0.00 | 44 | 1011.4 |
| 20260509153252 | 12 | 198 | 12.9 | 20.9 | 0.00 | 0.00 | 0.00 | 44 | 1011.4 |
| 20260509153213 | 12 | 173 | 14.5 | 20.9 | 0.00 | 0.00 | 0.00 | 44 | 1011.5 |
| 20260509153055 | 13 | 227 | 16.1 | 20.9 | 0.00 | 0.00 | 0.00 | 44 | 1011.4 |
| 20260509152958 | 13 | 168 | 14.5 | 20.9 | 0.00 | 0.00 | 0.00 | 44 | 1011.4 |
| 20260509152919 | 13 | 202 | 14.5 | 22.5 | 0.00 | 0.00 | 0.00 | 43 | 1011.3 |
| 20260509152722 | 13 | 203 | 16.1 | 24.1 | 0.00 | 0.00 | 0.00 | 42 | 1011.4 |
| 20260509152646 | 13 | 198 | 14.5 | 24.1 | 0.00 | 0.00 | 0.00 | 41 | 1011.4 |
| 20260509152551 | 13 | 198 | 12.9 | 20.9 | 0.00 | 0.00 | 0.00 | 42 | 1011.4 |
| 20260509152433 | 13 | 234 | 12.9 | 20.9 | 0.00 | 0.00 | 0.00 | 42 | 1011.4 |
| 20260509152336 | 13 | 159 | 9.7 | 20.9 | 0.00 | 0.00 | 0.00 | 43 | 1011.5 |
| 20260509152259 | 13 | 243 | 8.0 | 22.5 | 0.00 | 0.00 | 0.00 | 44 | 1011.5 |
| 20260509152223 | 13 | 183 | 8.0 | 22.5 | 0.00 | 0.00 | 0.00 | 44 | 1011.4 |
| 20260509152027 | 13 | 124 | 11.3 | 22.5 | 0.00 | 0.00 | 0.00 | 42 | 1011.5 |
| 20260509151929 | 13 | 171 | 11.3 | 22.5 | 0.00 | 0.00 | 0.00 | 42 | 1011.5 |
| 20260509151834 | 13 | 219 | 12.9 | 22.5 | 0.00 | 0.00 | 0.00 | 41 | 1011.6 |
| 20260509151735 | 13 | 186 | 12.9 | 22.5 | 0.00 | 0.00 | 0.00 | 41 | 1011.5 |
| 20260509151607 | 13 | 224 | 12.9 | 22.5 | 0.00 | 0.00 | 0.00 | 41 | 1011.5 |
| 20260509151521 | 13 | 192 | 12.9 | 22.5 | 0.00 | 0.00 | 0.00 | 41 | 1011.5 |
| 20260509151333 | 13 | 180 | 12.9 | 20.9 | 0.00 | 0.00 | 0.00 | 41 | 1011.5 |
| 20260509151247 | 13 | 192 | 11.3 | 20.9 | 0.00 | 0.00 | 0.00 | 42 | 1011.5 |
| 20260509151041 | 13 | 164 | 9.7 | 22.5 | 0.00 | 0.00 | 0.00 | 41 | 1011.5 |
| 20260509150937 | 13 | 182 | 11.3 | 20.9 | 0.00 | 0.00 | 0.00 | 41 | 1011.5 |
| 20260509150822 | 13 | 191 | 12.9 | 20.9 | 0.00 | 0.00 | 0.00 | 41 | 1011.5 |
| 20260509150722 | 13 | 130 | 11.3 | 20.9 | 0.00 | 0.00 | 0.00 | 41 | 1011.5 |
| 20260509150647 | 13 | 225 | 12.9 | 20.9 | 0.00 | 0.00 | 0.00 | 41 | 1011.5 |
| 20260509150529 | 13 | 200 | 12.9 | 20.9 | 0.00 | 0.00 | 0.00 | 41 | 1011.4 |
| 20260509150453 | 13 | 184 | 11.3 | 20.9 | 0.00 | 0.00 | 0.00 | 41 | 1011.4 |
| 20260509150409 | 13 | 142 | 11.3 | 20.9 | 0.00 | 0.00 | 0.00 | 41 | 1011.4 |
| 20260509150131 | 13 | 157 | 12.9 | 22.5 | 0.00 | 0.00 | 0.00 | 40 | 1011.4 |
| 20260509150048 | 13 | 179 | 11.3 | 19.3 | 0.00 | 0.00 | 0.00 | 41 | 1011.4 |
| 20260509150021 | 13 | 186 | 9.7 | 17.7 | 0.00 | 0.00 | 0.00 | 40 | 1011.3 |
| 20260509145824 | 13 | 163 | 9.7 | 14.5 | 0.00 | 0.00 | 0.00 | 40 | 1011.3 |
| 20260509145727 | 13 | 209 | 8.0 | 14.5 | 0.00 | 0.00 | 0.00 | 40 | 1011.4 |
| 20260509145631 | 13 | 206 | 6.4 | 14.5 | 0.00 | 0.00 | 0.00 | 41 | 1011.4 |
| 20260509145553 | 13 | 217 | 6.4 | 14.5 | 0.00 | 0.00 | 0.00 | 41 | 1011.4 |
| 20260509145516 | 13 | 211 | 8.0 | 14.5 | 0.00 | 0.00 | 0.00 | 41 | 1011.3 |
| 20260509145340 | 13 | 227 | 6.4 | 14.5 | 0.00 | 0.00 | 0.00 | 41 | 1011.3 |
| 20260509145227 | 13 | 145 | 6.4 | 16.1 | 0.00 | 0.00 | 0.00 | 43 | 1011.3 |
| 20260509145130 | 13 | 111 | 6.4 | 16.1 | 0.00 | 0.00 | 0.00 | 42 | 1011.4 |
| 20260509145054 | 13 | 192 | 6.4 | 16.1 | 0.00 | 0.00 | 0.00 | 42 | 1011.4 |
| 20260509145017 | 13 | 151 | 6.4 | 16.1 | 0.00 | 0.00 | 0.00 | 41 | 1011.4 |
| 20260509144822 | 13 | 226 | 8.0 | 16.1 | 0.00 | 0.00 | 0.00 | 41 | 1011.4 |
| 20260509144627 | 13 | 136 | 9.7 | 16.1 | 0.00 | 0.00 | 0.00 | 41 | 1011.4 |
| 20260509144529 | 13 | 137 | 8.0 | 16.1 | 0.00 | 0.00 | 0.00 | 41 | 1011.4 |
| 20260509144433 | 13 | 146 | 6.4 | 16.1 | 0.00 | 0.00 | 0.00 | 42 | 1011.4 |
| 20260509144356 | 13 | 186 | 6.4 | 16.1 | 0.00 | 0.00 | 0.00 | 41 | 1011.4 |
| 20260509144318 | 13 | 207 | 8.0 | 16.1 | 0.00 | 0.00 | 0.00 | 40 | 1011.4 |
| 20260509144126 | 13 | 168 | 9.7 | 16.1 | 0.00 | 0.00 | 0.00 | 40 | 1011.4 |
| 20260509144029 | 13 | 169 | 9.7 | 17.7 | 0.00 | 0.00 | 0.00 | 42 | 1011.4 |